XE2VP-WX Weather Reports


time (UTC)temp
C
wind
direction
speed
KPH
gust
KPH
rain 1hr
cm
rain 24hr
cm
rain mn
cm
humidity
%
barometer
mb
20260506203046 38 18 6.4 29.0 0.00 0.00 0.00 8 938.0
20260506202946 38 225 6.4 29.0 0.00 0.00 0.00 8 938.0
20260506202846 38 224 6.4 29.0 0.00 0.00 0.00 8 938.0
20260506202746 38 226 6.4 29.0 0.00 0.00 0.00 8 938.0
20260506202646 37 226 6.4 29.0 0.00 0.00 0.00 8 938.0
20260506202546 38 174 6.4 29.0 0.00 0.00 0.00 8 938.0
20260506202446 38 164 6.4 29.0 0.00 0.00 0.00 8 938.1
20260506202346 38 325 6.4 29.0 0.00 0.00 0.00 8 938.1
20260506202246 37 226 6.4 29.0 0.00 0.00 0.00 8 938.1
20260506202147 37 345 6.4 29.0 0.00 0.00 0.00 8 938.1
20260506202046 37 229 6.4 29.0 0.00 0.00 0.00 8 938.2
20260506201946 37 243 6.4 11.3 0.00 0.00 0.00 8 938.2
20260506201846 37 299 6.4 30.6 0.00 0.00 0.00 8 938.2
20260506201747 37 23 6.4 30.6 0.00 0.00 0.00 8 938.2
20260506201646 37 327 6.4 30.6 0.00 0.00 0.00 8 938.2
20260506201546 37 226 6.4 30.6 0.00 0.00 0.00 8 938.2
20260506201446 37 10 6.4 30.6 0.00 0.00 0.00 9 938.2
20260506201346 37 226 6.4 30.6 0.00 0.00 0.00 9 938.3
20260506201247 37 228 6.4 30.6 0.00 0.00 0.00 9 938.2
20260506201146 37 252 6.4 30.6 0.00 0.00 0.00 9 938.2
20260506201046 37 268 6.4 30.6 0.00 0.00 0.00 9 938.2
20260506200946 37 188 6.4 30.6 0.00 0.00 0.00 8 938.2
20260506200846 37 40 6.4 11.3 0.00 0.00 0.00 9 938.3
20260506200747 37 19 6.4 11.3 0.00 0.00 0.00 8 938.3
20260506200646 37 39 6.4 11.3 0.00 0.00 0.00 8 938.3
20260506200546 37 94 6.4 11.3 0.00 0.00 0.00 9 938.3
20260506200446 37 175 6.4 11.3 0.00 0.00 0.00 11 938.3
20260506200346 37 169 6.4 11.3 0.00 0.00 0.00 11 938.3
20260506200247 37 166 4.8 11.3 0.00 0.00 0.00 11 938.4
20260506200146 37 144 4.8 11.3 0.00 0.00 0.00 12 938.5
20260506200046 37 167 4.8 11.3 0.00 0.00 0.00 12 938.5
20260506195946 37 165 4.8 11.3 0.00 0.00 0.00 15 938.6
20260506195846 37 205 4.8 11.3 0.00 0.00 0.00 15 938.6
20260506195747 37 354 6.4 11.3 0.00 0.00 0.00 16 938.7
20260506195647 37 131 6.4 11.3 0.00 0.00 0.00 16 938.7
20260506195546 37 91 6.4 12.9 0.00 0.00 0.00 14 938.7
20260506195447 37 40 6.4 12.9 0.00 0.00 0.00 13 938.6
20260506195346 37 227 6.4 12.9 0.00 0.00 0.00 12 938.6
20260506195247 37 354 6.4 12.9 0.00 0.00 0.00 11 938.6
20260506195147 37 344 6.4 12.9 0.00 0.00 0.00 12 938.6
20260506195046 37 343 6.4 12.9 0.00 0.00 0.00 12 938.6
20260506194947 37 318 6.4 12.9 0.00 0.00 0.00 11 938.7
20260506194847 37 342 6.4 12.9 0.00 0.00 0.00 10 938.6
20260506194747 36 40 6.4 12.9 0.00 0.00 0.00 11 938.7
20260506194647 36 16 6.4 12.9 0.00 0.00 0.00 12 938.7
20260506194546 36 21 6.4 12.9 0.00 0.00 0.00 15 938.8
20260506194443 36 195 6.4 14.5 0.00 0.00 0.00 16 938.8
20260506194342 36 175 6.4 14.5 0.00 0.00 0.00 16 938.8
20260506194243 36 351 6.4 14.5 0.00 0.00 0.00 16 938.8
20260506194141 36 30 6.4 14.5 0.00 0.00 0.00 18 938.9
20260506194041 36 62 6.4 14.5 0.00 0.00 0.00 19 938.9
20260506193941 36 56 6.4 14.5 0.00 0.00 0.00 20 939.0
20260506193841 36 70 6.4 14.5 0.00 0.00 0.00 21 939.0
20260506193741 36 61 6.4 14.5 0.00 0.00 0.00 21 939.0
20260506193641 36 357 6.4 14.5 0.00 0.00 0.00 21 939.1
20260506193540 36 12 6.4 14.5 0.00 0.00 0.00 21 939.1
20260506193441 36 40 6.4 14.5 0.00 0.00 0.00 21 939.2
20260506193342 36 35 6.4 14.5 0.00 0.00 0.00 21 939.3
20260506193241 36 38 6.4 14.5 0.00 0.00 0.00 21 939.3
20260506193142 36 38 8.0 14.5 0.00 0.00 0.00 20 939.3
20260506193041 36 277 8.0 16.1 0.00 0.00 0.00 19 939.3
20260506192941 36 234 9.7 17.7 0.00 0.00 0.00 18 939.3
20260506192842 36 97 9.7 17.7 0.00 0.00 0.00 18 939.3
20260506192741 36 41 9.7 19.3 0.00 0.00 0.00 19 939.3
20260506192641 36 27 9.7 19.3 0.00 0.00 0.00 20 939.3
20260506192541 36 5 9.7 19.3 0.00 0.00 0.00 20 939.4
20260506192441 36 1 8.0 19.3 0.00 0.00 0.00 20 939.4
20260506192341 36 12 8.0 19.3 0.00 0.00 0.00 20 939.4
20260506192241 36 4 8.0 19.3 0.00 0.00 0.00 21 939.4
20260506192141 36 357 6.4 19.3 0.00 0.00 0.00 20 939.4
20260506192041 36 6 6.4 19.3 0.00 0.00 0.00 20 939.4
20260506191941 36 13 4.8 19.3 0.00 0.00 0.00 20 939.4
20260506191841 36 27 4.8 19.3 0.00 0.00 0.00 18 939.4
20260506191742 36 335 3.2 9.7 0.00 0.00 0.00 16 939.4
20260506191641 36 6 3.2 9.7 0.00 0.00 0.00 21 939.5
20260506191541 36 195 3.2 9.7 0.00 0.00 0.00 22 939.5
20260506191441 36 159 3.2 9.7 0.00 0.00 0.00 23 939.5
20260506191341 36 194 3.2 9.7 0.00 0.00 0.00 22 939.6
20260506191241 36 154 3.2 9.7 0.00 0.00 0.00 22 939.6
20260506191141 36 130 3.2 9.7 0.00 0.00 0.00 22 939.6
20260506191042 35 142 3.2 14.5 0.00 0.00 0.00 23 939.6
20260506190941 35 146 4.8 16.1 0.00 0.00 0.00 24 939.6
20260506190842 35 198 4.8 16.1 0.00 0.00 0.00 23 939.7
20260506190742 35 243 4.8 16.1 0.00 0.00 0.00 24 939.7
20260506190641 35 191 4.8 16.1 0.00 0.00 0.00 25 939.7
20260506190542 35 265 6.4 16.1 0.00 0.00 0.00 25 939.8
20260506190442 35 219 4.8 16.1 0.00 0.00 0.00 25 939.8
20260506190341 35 313 4.8 16.1 0.00 0.00 0.00 25 939.8
20260506190242 35 54 4.8 16.1 0.00 0.00 0.00 25 939.8
20260506190141 35 7 4.8 16.1 0.00 0.00 0.00 25 939.8
20260506190042 35 25 4.8 16.1 0.00 0.00 0.00 26 939.8
20260506185941 35 207 4.8 14.5 0.00 0.00 0.00 26 939.8
20260506185841 35 73 4.8 14.5 0.00 0.00 0.00 26 939.8
20260506185742 35 41 6.4 14.5 0.00 0.00 0.00 25 939.8
20260506185641 35 44 6.4 14.5 0.00 0.00 0.00 25 939.9
20260506185542 35 211 6.4 14.5 0.00 0.00 0.00 25 939.9
20260506185441 35 117 6.4 14.5 0.00 0.00 0.00 26 939.9
20260506185342 35 48 6.4 14.5 0.00 0.00 0.00 26 939.9
20260506185242 35 16 6.4 14.5 0.00 0.00 0.00 26 939.9
20260506185140 35 357 6.4 14.5 0.00 0.00 0.00 26 940.0
20260506185041 35 17 4.8 14.5 0.00 0.00 0.00 25 940.0
20260506184940 35 9 4.8 14.5 0.00 0.00 0.00 26 940.0
20260506184840 35 149 4.8 14.5 0.00 0.00 0.00 26 940.0
20260506184741 35 26 4.8 12.9 0.00 0.00 0.00 26 940.0
20260506184640 35 34 3.2 12.9 0.00 0.00 0.00 27 940.0
20260506184540 35 147 3.2 12.9 0.00 0.00 0.00 26 940.1
20260506184441 35 105 3.2 12.9 0.00 0.00 0.00 27 940.1
20260506184342 35 261 3.2 12.9 0.00 0.00 0.00 27 940.1
20260506184242 35 0 3.2 12.9 0.00 0.00 0.00 27 940.1
20260506184141 35 321 3.2 12.9 0.00 0.00 0.00 27 940.1
20260506184037 35 297 4.8 12.9 0.00 0.00 0.00 28 940.1
20260506183938 35 314 4.8 12.9 0.00 0.00 0.00 26 940.2
20260506183836 35 299 4.8 11.3 0.00 0.00 0.00 26 940.2
20260506183736 35 287 4.8 11.3 0.00 0.00 0.00 26 940.2
20260506183636 35 326 4.8 11.3 0.00 0.00 0.00 26 940.2
20260506183536 34 272 4.8 11.3 0.00 0.00 0.00 26 940.2
20260506183436 34 0 4.8 11.3 0.00 0.00 0.00 26 940.2
20260506183336 34 66 4.8 11.3 0.00 0.00 0.00 30 940.2
20260506183236 34 7 4.8 11.3 0.00 0.00 0.00 30 940.2
20260506183137 34 191 4.8 11.3 0.00 0.00 0.00 30 940.3
20260506183036 34 41 4.8 11.3 0.00 0.00 0.00 30 940.3
20260506182936 34 20 4.8 11.3 0.00 0.00 0.00 30 940.3
20260506182837 34 354 4.8 9.7 0.00 0.00 0.00 31 940.4
20260506182736 34 31 4.8 9.7 0.00 0.00 0.00 31 940.4
20260506182635 33 0 4.8 9.7 0.00 0.00 0.00 32 940.4
20260506182531 33 174 4.8 9.7 0.00 0.00 0.00 32 940.4
20260506182432 33 182 4.8 9.7 0.00 0.00 0.00 32 940.4
20260506182331 33 211 4.8 9.7 0.00 0.00 0.00 31 940.4
20260506182232 33 142 4.8 9.7 0.00 0.00 0.00 32 940.4
20260506182132 33 158 4.8 9.7 0.00 0.00 0.00 33 940.5
20260506182031 33 153 4.8 9.7 0.00 0.00 0.00 34 940.5
20260506181932 33 347 4.8 9.7 0.00 0.00 0.00 34 940.5
20260506181832 33 359 4.8 9.7 0.00 0.00 0.00 34 940.5
20260506181732 33 58 4.8 11.3 0.00 0.00 0.00 33 940.5
20260506181632 33 182 4.8 11.3 0.00 0.00 0.00 33 940.5
20260506181533 33 206 4.8 11.3 0.00 0.00 0.00 34 940.6
20260506181432 33 83 4.8 11.3 0.00 0.00 0.00 33 940.6
20260506181332 33 136 4.8 11.3 0.00 0.00 0.00 34 940.6
20260506181232 33 153 4.8 11.3 0.00 0.00 0.00 35 940.6
20260506181132 33 174 4.8 11.3 0.00 0.00 0.00 35 940.6
20260506181033 33 3 4.8 11.3 0.00 0.00 0.00 36 940.6
20260506180932 33 352 4.8 11.3 0.00 0.00 0.00 36 940.6
20260506180832 33 15 4.8 11.3 0.00 0.00 0.00 36 940.6
20260506180732 33 21 4.8 11.3 0.00 0.00 0.00 36 940.7
20260506180632 33 13 4.8 9.7 0.00 0.00 0.00 36 940.7
20260506180532 33 19 4.8 9.7 0.00 0.00 0.00 36 940.8
20260506180432 33 3 4.8 9.7 0.00 0.00 0.00 35 940.8
20260506180332 33 41 4.8 9.7 0.00 0.00 0.00 36 940.8
20260506180233 33 59 4.8 11.3 0.00 0.00 0.00 36 940.8
20260506180132 33 0 4.8 11.3 0.00 0.00 0.00 35 940.8
20260506180032 33 78 6.4 11.3 0.00 0.00 0.00 36 940.8
20260506175932 33 77 6.4 11.3 0.00 0.00 0.00 36 940.8
20260506175832 33 50 6.4 11.3 0.00 0.00 0.00 36 940.8
20260506175733 33 30 6.4 11.3 0.00 0.00 0.00 36 940.8
20260506175632 33 74 6.4 11.3 0.00 0.00 0.00 37 940.8
20260506175533 33 75 6.4 11.3 0.00 0.00 0.00 37 940.8
20260506175432 33 15 6.4 11.3 0.00 0.00 0.00 37 940.8
20260506175330 33 50 6.4 11.3 0.00 0.00 0.00 36 940.8
20260506175231 33 41 6.4 11.3 0.00 0.00 0.00 36 940.8
20260506175126 32 32 4.8 11.3 0.00 0.00 0.00 39 940.8
20260506175027 32 52 4.8 11.3 0.00 0.00 0.00 40 940.8
20260506174926 32 112 4.8 11.3 0.00 0.00 0.00 40 940.8
20260506174826 32 65 4.8 11.3 0.00 0.00 0.00 41 940.9
20260506174725 33 45 4.8 11.3 0.00 0.00 0.00 41 940.9
20260506174624 33 92 4.8 11.3 0.00 0.00 0.00 41 941.0
20260506174525 33 71 4.8 11.3 0.00 0.00 0.00 42 941.0
20260506174425 32 102 4.8 11.3 0.00 0.00 0.00 43 941.0
20260506174320 33 46 4.8 11.3 0.00 0.00 0.00 43 941.0
20260506174219 33 65 4.8 11.3 0.00 0.00 0.00 42 941.0
20260506174119 33 44 3.2 11.3 0.00 0.00 0.00 40 941.0
20260506174019 32 79 3.2 8.0 0.00 0.00 0.00 40 941.0
20260506173918 32 95 4.8 8.0 0.00 0.00 0.00 39 941.0
20260506173819 32 359 4.8 8.0 0.00 0.00 0.00 39 941.0
20260506173714 32 338 4.8 8.0 0.00 0.00 0.00 39 941.0
20260506173615 32 20 4.8 8.0 0.00 0.00 0.00 41 941.0
20260506173515 32 286 4.8 9.7 0.00 0.00 0.00 42 941.1
20260506173414 32 9 4.8 9.7 0.00 0.00 0.00 42 941.1
20260506173315 32 33 6.4 9.7 0.00 0.00 0.00 43 941.1
20260506173214 32 359 6.4 9.7 0.00 0.00 0.00 42 941.1
20260506173115 32 44 6.4 9.7 0.00 0.00 0.00 43 941.1
20260506173014 32 30 4.8 9.7 0.00 0.00 0.00 44 941.1
20260506172914 32 0 4.8 9.7 0.00 0.00 0.00 44 941.2
20260506172815 32 30 4.8 9.7 0.00 0.00 0.00 44 941.2
20260506172715 32 64 4.8 9.7 0.00 0.00 0.00 45 941.2
20260506172615 32 63 4.8 9.7 0.00 0.00 0.00 45 941.2
20260506172515 32 56 4.8 9.7 0.00 0.00 0.00 45 941.2
20260506172415 32 73 4.8 9.7 0.00 0.00 0.00 45 941.2
20260506172315 32 66 4.8 9.7 0.00 0.00 0.00 45 941.2
20260506172215 32 22 4.8 9.7 0.00 0.00 0.00 45 941.2
20260506172116 32 37 4.8 9.7 0.00 0.00 0.00 45 941.2
20260506172015 32 38 4.8 9.7 0.00 0.00 0.00 46 941.2
20260506171915 32 349 4.8 9.7 0.00 0.00 0.00 45 941.2
20260506171815 32 0 4.8 11.3 0.00 0.00 0.00 43 941.2
20260506171715 32 340 4.8 11.3 0.00 0.00 0.00 45 941.2
20260506171615 32 45 6.4 11.3 0.00 0.00 0.00 46 941.2
20260506171515 32 15 6.4 12.9 0.00 0.00 0.00 46 941.2
20260506171416 32 5 6.4 12.9 0.00 0.00 0.00 46 941.3
20260506171315 32 0 4.8 12.9 0.00 0.00 0.00 45 941.3
20260506171215 32 35 6.4 12.9 0.00 0.00 0.00 44 941.2
20260506171115 32 31 6.4 12.9 0.00 0.00 0.00 44 941.2
20260506171015 32 8 6.4 12.9 0.00 0.00 0.00 45 941.3
20260506170916 32 357 6.4 12.9 0.00 0.00 0.00 44 941.3
20260506170815 32 354 4.8 12.9 0.00 0.00 0.00 44 941.2
20260506170715 32 17 4.8 12.9 0.00 0.00 0.00 45 941.3
20260506170615 32 351 4.8 12.9 0.00 0.00 0.00 45 941.2
20260506170515 32 354 3.2 11.3 0.00 0.00 0.00 46 941.3
20260506170415 32 327 4.8 11.3 0.00 0.00 0.00 46 941.3
20260506170315 32 342 4.8 11.3 0.00 0.00 0.00 46 941.3
20260506170215 32 9 4.8 11.3 0.00 0.00 0.00 47 941.3
20260506170116 32 308 4.8 11.3 0.00 0.00 0.00 46 941.4
20260506170015 31 31 4.8 11.3 0.00 0.00 0.00 46 941.4
20260506165915 31 0 4.8 9.7 0.00 0.00 0.00 46 941.3
20260506165816 31 310 4.8 9.7 0.00 0.00 0.00 48 941.4
20260506165714 31 334 4.8 9.7 0.00 0.00 0.00 48 941.4
20260506165615 31 294 4.8 9.7 0.00 0.00 0.00 48 941.4
20260506165515 31 355 4.8 9.7 0.00 0.00 0.00 48 941.4
20260506165415 31 8 4.8 9.7 0.00 0.00 0.00 48 941.4
20260506165315 31 326 4.8 9.7 0.00 0.00 0.00 48 941.4
20260506165216 31 354 4.8 9.7 0.00 0.00 0.00 48 941.4
20260506165115 31 351 4.8 9.7 0.00 0.00 0.00 49 941.3
20260506165015 31 15 3.2 9.7 0.00 0.00 0.00 49 941.4
20260506164915 31 16 3.2 9.7 0.00 0.00 0.00 50 941.3
20260506164816 31 5 3.2 9.7 0.00 0.00 0.00 50 941.3
20260506164714 31 23 3.2 9.7 0.00 0.00 0.00 50 941.4
20260506164613 31 328 3.2 9.7 0.00 0.00 0.00 52 941.4
20260506164514 31 26 3.2 9.7 0.00 0.00 0.00 52 941.4
20260506164414 31 11 3.2 9.7 0.00 0.00 0.00 52 941.4
20260506164314 31 356 3.2 9.7 0.00 0.00 0.00 52 941.4
20260506164214 31 24 4.8 9.7 0.00 0.00 0.00 53 941.5
20260506164114 31 149 4.8 9.7 0.00 0.00 0.00 53 941.5
20260506164014 31 105 4.8 9.7 0.00 0.00 0.00 53 941.5
20260506163914 31 43 4.8 9.7 0.00 0.00 0.00 53 941.5
20260506163810 31 62 4.8 9.7 0.00 0.00 0.00 52 941.4
20260506163709 31 27 4.8 8.0 0.00 0.00 0.00 53 941.4
20260506163610 31 335 3.2 8.0 0.00 0.00 0.00 53 941.4
20260506163510 31 11 3.2 8.0 0.00 0.00 0.00 52 941.4
20260506163409 31 5 3.2 8.0 0.00 0.00 0.00 52 941.4
20260506163309 31 25 3.2 8.0 0.00 0.00 0.00 52 941.4
20260506163210 31 355 3.2 8.0 0.00 0.00 0.00 52 941.4
20260506163109 30 3 3.2 8.0 0.00 0.00 0.00 53 941.4
20260506163010 30 268 3.2 8.0 0.00 0.00 0.00 53 941.5
20260506162910 30 209 3.2 11.3 0.00 0.00 0.00 53 941.5
20260506162810 30 48 3.2 11.3 0.00 0.00 0.00 54 941.5
20260506162710 30 25 3.2 11.3 0.00 0.00 0.00 54 941.5
20260506162609 30 16 4.8 11.3 0.00 0.00 0.00 54 941.5
20260506162510 30 0 4.8 11.3 0.00 0.00 0.00 55 941.5
20260506162410 30 230 4.8 11.3 0.00 0.00 0.00 55 941.5
20260506162310 30 41 4.8 11.3 0.00 0.00 0.00 55 941.5
20260506162209 30 357 4.8 11.3 0.00 0.00 0.00 55 941.6
20260506162110 30 8 4.8 11.3 0.00 0.00 0.00 55 941.5
20260506162010 30 332 4.8 11.3 0.00 0.00 0.00 55 941.6
20260506161909 30 8 3.2 11.3 0.00 0.00 0.00 55 941.5
20260506161810 30 22 3.2 9.7 0.00 0.00 0.00 55 941.5
20260506161710 30 35 3.2 9.7 0.00 0.00 0.00 55 941.6
20260506161610 30 7 3.2 9.7 0.00 0.00 0.00 56 941.6
20260506161510 30 333 3.2 8.0 0.00 0.00 0.00 56 941.6
20260506161410 30 347 4.8 8.0 0.00 0.00 0.00 56 941.6
20260506161310 30 353 3.2 8.0 0.00 0.00 0.00 57 941.5
20260506161210 30 15 3.2 8.0 0.00 0.00 0.00 58 941.5
20260506161110 30 14 3.2 8.0 0.00 0.00 0.00 58 941.5
20260506161010 30 28 3.2 8.0 0.00 0.00 0.00 58 941.5
20260506160910 30 25 3.2 8.0 0.00 0.00 0.00 58 941.5
20260506160810 30 26 3.2 8.0 0.00 0.00 0.00 58 941.5
20260506160711 30 50 3.2 8.0 0.00 0.00 0.00 57 941.5
20260506160610 30 56 3.2 8.0 0.00 0.00 0.00 57 941.5
20260506160510 30 19 1.6 8.0 0.00 0.00 0.00 56 941.6
20260506160411 30 31 1.6 9.7 0.00 0.00 0.00 56 941.6
20260506160310 30 123 3.2 9.7 0.00 0.00 0.00 57 941.6
20260506160210 30 331 3.2 9.7 0.00 0.00 0.00 57 941.6
20260506160110 30 0 3.2 9.7 0.00 0.00 0.00 58 941.6
20260506160010 29 0 3.2 9.7 0.00 0.00 0.00 58 941.6
20260506155909 29 56 3.2 9.7 0.00 0.00 0.00 58 941.6
20260506155809 29 89 3.2 9.7 0.00 0.00 0.00 59 941.6
20260506155708 29 284 3.2 9.7 0.00 0.00 0.00 58 941.6
20260506155609 29 28 3.2 9.7 0.00 0.00 0.00 59 941.6
20260506155504 29 307 3.2 9.7 0.00 0.00 0.00 59 941.6
20260506155405 29 4 3.2 6.4 0.00 0.00 0.00 59 941.6
20260506155306 29 345 3.2 6.4 0.00 0.00 0.00 58 941.6
20260506155205 29 357 3.2 6.4 0.00 0.00 0.00 59 941.6
20260506155104 29 9 3.2 6.4 0.00 0.00 0.00 58 941.6
20260506155003 28 18 3.2 6.4 0.00 0.00 0.00 59 941.6
20260506154903 28 16 3.2 6.4 0.00 0.00 0.00 59 941.6
20260506154759 28 352 3.2 6.4 0.00 0.00 0.00 60 941.6
20260506154658 28 2 3.2 6.4 0.00 0.00 0.00 61 941.6
20260506154559 28 0 3.2 6.4 0.00 0.00 0.00 61 941.6
20260506154459 28 0 3.2 6.4 0.00 0.00 0.00 62 941.6
20260506154357 28 111 3.2 6.4 0.00 0.00 0.00 62 941.6
20260506154257 28 144 3.2 6.4 0.00 0.00 0.00 62 941.6
20260506154157 28 179 3.2 6.4 0.00 0.00 0.00 61 941.5
20260506154058 28 153 1.6 6.4 0.00 0.00 0.00 62 941.5
20260506153957 28 191 1.6 6.4 0.00 0.00 0.00 62 941.5
20260506153856 28 131 1.6 6.4 0.00 0.00 0.00 62 941.5
20260506153753 28 130 1.6 6.4 0.00 0.00 0.00 62 941.5
20260506153653 28 187 1.6 6.4 0.00 0.00 0.00 62 941.5
20260506153551 28 215 1.6 6.4 0.00 0.00 0.00 62 941.5
20260506153451 28 134 1.6 6.4 0.00 0.00 0.00 62 941.5
20260506153352 28 147 1.6 6.4 0.00 0.00 0.00 61 941.4
20260506153251 28 0 1.6 6.4 0.00 0.00 0.00 62 941.4
20260506153147 28 71 1.6 6.4 0.00 0.00 0.00 62 941.4
20260506153047 28 141 1.6 6.4 0.00 0.00 0.00 61 941.4
20260506152947 28 115 1.6 4.8 0.00 0.00 0.00 62 941.4
20260506152847 28 0 1.6 4.8 0.00 0.00 0.00 61 941.4
20260506152747 28 35 1.6 4.8 0.00 0.00 0.00 62 941.3
20260506152647 28 42 1.6 4.8 0.00 0.00 0.00 62 941.4
20260506152546 28 4 1.6 4.8 0.00 0.00 0.00 62 941.4
20260506152447 28 5 1.6 4.8 0.00 0.00 0.00 62 941.3
20260506152347 28 352 1.6 4.8 0.00 0.00 0.00 62 941.3
20260506152247 28 301 1.6 6.4 0.00 0.00 0.00 63 941.3
20260506152147 27 0 1.6 6.4 0.00 0.00 0.00 63 941.3
20260506152047 27 317 3.2 6.4 0.00 0.00 0.00 64 941.3
20260506151947 27 355 3.2 6.4 0.00 0.00 0.00 64 941.4
20260506151847 27 37 3.2 6.4 0.00 0.00 0.00 64 941.4
20260506151747 27 42 3.2 6.4 0.00 0.00 0.00 65 941.4
20260506151647 27 16 3.2 6.4 0.00 0.00 0.00 65 941.4
20260506151547 27 33 3.2 6.4 0.00 0.00 0.00 65 941.4
20260506151447 27 106 3.2 6.4 0.00 0.00 0.00 66 941.3
20260506151347 27 22 3.2 8.0 0.00 0.00 0.00 67 941.3
20260506151247 27 72 3.2 8.0 0.00 0.00 0.00 67 941.3
20260506151148 27 20 4.8 8.0 0.00 0.00 0.00 68 941.3
20260506151047 27 21 4.8 8.0 0.00 0.00 0.00 69 941.3
20260506150948 27 53 4.8 8.0 0.00 0.00 0.00 69 941.3
20260506150847 27 30 4.8 8.0 0.00 0.00 0.00 69 941.4
20260506150748 27 52 4.8 8.0 0.00 0.00 0.00 69 941.4
20260506150647 27 84 4.8 8.0 0.00 0.00 0.00 69 941.4
20260506150547 27 71 4.8 8.0 0.00 0.00 0.00 69 941.4
20260506150448 27 37 4.8 8.0 0.00 0.00 0.00 69 941.4
20260506150347 27 51 4.8 8.0 0.00 0.00 0.00 70 941.4
20260506150245 27 51 4.8 8.0 0.00 0.00 0.00 69 941.4
20260506150146 27 78 4.8 8.0 0.00 0.00 0.00 69 941.4
20260506150045 27 57 3.2 8.0 0.00 0.00 0.00 69 941.4
20260506145946 27 80 3.2 8.0 0.00 0.00 0.00 69 941.4
20260506145846 27 18 3.2 8.0 0.00 0.00 0.00 70 941.3
20260506145745 27 15 4.8 9.7 0.00 0.00 0.00 70 941.4
20260506145641 27 52 3.2 9.7 0.00 0.00 0.00 69 941.4
20260506145542 27 75 3.2 9.7 0.00 0.00 0.00 69 941.4
20260506145442 27 348 3.2 9.7 0.00 0.00 0.00 69 941.4
20260506145341 27 4 3.2 11.3 0.00 0.00 0.00 69 941.4
20260506145242 27 85 4.8 11.3 0.00 0.00 0.00 69 941.4
20260506145142 26 77 4.8 11.3 0.00 0.00 0.00 70 941.4
20260506145041 26 140 4.8 11.3 0.00 0.00 0.00 70 941.3
20260506144941 26 32 4.8 11.3 0.00 0.00 0.00 70 941.4
20260506144841 26 102 3.2 11.3 0.00 0.00 0.00 70 941.3
20260506144742 26 144 3.2 11.3 0.00 0.00 0.00 71 941.4
20260506144641 26 22 4.8 11.3 0.00 0.00 0.00 72 941.4
20260506144543 26 24 4.8 11.3 0.00 0.00 0.00 73 941.4
20260506144443 26 19 4.8 11.3 0.00 0.00 0.00 73 941.4
20260506144343 26 64 4.8 11.3 0.00 0.00 0.00 72 941.4
20260506144243 26 68 4.8 11.3 0.00 0.00 0.00 73 941.4
20260506144143 26 104 6.4 11.3 0.00 0.00 0.00 73 941.4
20260506144043 26 67 6.4 11.3 0.00 0.00 0.00 73 941.4
20260506143943 26 56 6.4 11.3 0.00 0.00 0.00 74 941.5
20260506143843 26 61 6.4 11.3 0.00 0.00 0.00 75 941.5
20260506143744 26 102 6.4 11.3 0.00 0.00 0.00 75 941.5
20260506143643 26 88 6.4 11.3 0.00 0.00 0.00 75 941.5
20260506143543 26 67 6.4 11.3 0.00 0.00 0.00 75 941.5
20260506143444 26 65 6.4 11.3 0.00 0.00 0.00 74 941.5
20260506143343 26 87 6.4 12.9 0.00 0.00 0.00 74 941.4
20260506143243 26 50 6.4 12.9 0.00 0.00 0.00 74 941.5
20260506143144 26 59 6.4 12.9 0.00 0.00 0.00 74 941.5
20260506143043 26 74 6.4 12.9 0.00 0.00 0.00 74 941.5
20260506142944 26 68 6.4 12.9 0.00 0.00 0.00 74 941.5
20260506142843 26 98 6.4 12.9 0.00 0.00 0.00 74 941.5
20260506142743 26 120 4.8 12.9 0.00 0.00 0.00 75 941.5
20260506142644 26 71 4.8 12.9 0.00 0.00 0.00 76 941.5
20260506142543 26 37 4.8 12.9 0.00 0.00 0.00 76 941.5
20260506142443 26 64 4.8 12.9 0.00 0.00 0.00 75 941.5
20260506142344 26 67 4.8 11.3 0.00 0.00 0.00 75 941.5
20260506142243 26 84 3.2 9.7 0.00 0.00 0.00 73 941.5
20260506142144 26 89 3.2 9.7 0.00 0.00 0.00 74 941.5
20260506142043 26 109 3.2 9.7 0.00 0.00 0.00 74 941.5
20260506141942 26 54 4.8 9.7 0.00 0.00 0.00 73 941.5
20260506141844 26 116 4.8 9.7 0.00 0.00 0.00 73 941.5
20260506141743 26 120 4.8 9.7 0.00 0.00 0.00 73 941.4
20260506141644 26 20 4.8 9.7 0.00 0.00 0.00 74 941.4
20260506141542 26 78 4.8 9.7 0.00 0.00 0.00 75 941.4
20260506141442 26 83 4.8 9.7 0.00 0.00 0.00 76 941.4
20260506141342 25 148 6.4 9.7 0.00 0.00 0.00 77 941.4
20260506141242 25 6 6.4 11.3 0.00 0.00 0.00 77 941.4
20260506141143 25 52 6.4 11.3 0.00 0.00 0.00 77 941.4
20260506141042 25 64 6.4 11.3 0.00 0.00 0.00 77 941.4
20260506140942 25 65 6.4 11.3 0.00 0.00 0.00 77 941.4
20260506140842 25 56 6.4 11.3 0.00 0.00 0.00 77 941.3
20260506140742 25 88 6.4 11.3 0.00 0.00 0.00 78 941.3
20260506140640 25 30 6.4 11.3 0.00 0.00 0.00 78 941.3
20260506140541 25 54 6.4 11.3 0.00 0.00 0.00 78 941.3
20260506140440 25 87 6.4 11.3 0.00 0.00 0.00 78 941.3
20260506140341 25 32 6.4 11.3 0.00 0.00 0.00 78 941.3
20260506140241 25 62 6.4 9.7 0.00 0.00 0.00 78 941.3
20260506140140 25 81 6.4 9.7 0.00 0.00 0.00 77 941.2
20260506140041 25 86 6.4 9.7 0.00 0.00 0.00 78 941.2
20260506135940 25 61 4.8 9.7 0.00 0.00 0.00 79 941.2
20260506135841 26 85 4.8 9.7 0.00 0.00 0.00 78 941.2
20260506135740 26 71 4.8 9.7 0.00 0.00 0.00 78 941.2
20260506135641 26 95 4.8 9.7 0.00 0.00 0.00 77 941.2
20260506135541 26 82 3.2 9.7 0.00 0.00 0.00 76 941.2
20260506135441 26 93 3.2 9.7 0.00 0.00 0.00 75 941.2
20260506135341 26 72 3.2 9.7 0.00 0.00 0.00 75 941.2
20260506135241 26 76 3.2 8.0 0.00 0.00 0.00 75 941.2
20260506135141 26 41 3.2 8.0 0.00 0.00 0.00 76 941.2
20260506135041 26 102 3.2 8.0 0.00 0.00 0.00 75 941.2
20260506134937 26 55 3.2 8.0 0.00 0.00 0.00 77 941.2
20260506134836 25 0 3.2 8.0 0.00 0.00 0.00 77 941.2
20260506134737 25 0 4.8 8.0 0.00 0.00 0.00 77 941.2
20260506134635 25 92 4.8 9.7 0.00 0.00 0.00 76 941.1
20260506134535 25 104 4.8 9.7 0.00 0.00 0.00 76 941.2
20260506134435 25 80 4.8 9.7 0.00 0.00 0.00 77 941.2
20260506134334 25 86 4.8 9.7 0.00 0.00 0.00 77 941.1
20260506134232 25 110 6.4 11.3 0.00 0.00 0.00 78 941.1
20260506134130 25 0 6.4 12.9 0.00 0.00 0.00 78 941.1
20260506134030 25 63 6.4 12.9 0.00 0.00 0.00 78 941.2
20260506133929 25 89 6.4 12.9 0.00 0.00 0.00 78 941.2
20260506133830 25 62 6.4 12.9 0.00 0.00 0.00 78 941.2
20260506133729 25 77 6.4 12.9 0.00 0.00 0.00 78 941.1
20260506133630 25 96 6.4 12.9 0.00 0.00 0.00 79 941.1
20260506133528 25 73 4.8 12.9 0.00 0.00 0.00 78 941.1
20260506133429 25 63 4.8 12.9 0.00 0.00 0.00 78 941.1
20260506133328 25 83 4.8 12.9 0.00 0.00 0.00 77 941.1
20260506133229 26 54 4.8 12.9 0.00 0.00 0.00 76 941.1
20260506133128 26 67 4.8 9.7 0.00 0.00 0.00 76 941.1
20260506133028 26 46 4.8 9.7 0.00 0.00 0.00 75 941.0
20260506132928 26 92 4.8 9.7 0.00 0.00 0.00 75 941.0
20260506132828 26 56 4.8 9.7 0.00 0.00 0.00 75 941.0
20260506132728 26 105 3.2 9.7 0.00 0.00 0.00 75 941.0
20260506132628 26 351 3.2 9.7 0.00 0.00 0.00 75 940.9
20260506132528 26 73 3.2 9.7 0.00 0.00 0.00 75 940.9
20260506132429 26 81 3.2 9.7 0.00 0.00 0.00 75 940.9
20260506132330 26 80 3.2 9.7 0.00 0.00 0.00 74 940.9
20260506132230 26 50 3.2 8.0 0.00 0.00 0.00 73 940.9
20260506132130 26 33 3.2 8.0 0.00 0.00 0.00 72 940.9
20260506132029 26 77 3.2 8.0 0.00 0.00 0.00 70 940.9
20260506131930 26 60 3.2 8.0 0.00 0.00 0.00 69 940.9
20260506131829 26 34 3.2 8.0 0.00 0.00 0.00 70 940.9
20260506131730 26 114 3.2 8.0 0.00 0.00 0.00 69 940.9
20260506131630 26 35 1.6 8.0 0.00 0.00 0.00 65 940.9
20260506131530 26 40 1.6 4.8 0.00 0.00 0.00 65 940.9
20260506131429 26 24 1.6 4.8 0.00 0.00 0.00 65 940.9
20260506131330 26 21 1.6 4.8 0.00 0.00 0.00 65 940.9
20260506131230 26 52 1.6 4.8 0.00 0.00 0.00 64 940.9
20260506131125 26 61 1.6 4.8 0.00 0.00 0.00 64 940.8
20260506131025 26 0 0.0 4.8 0.00 0.00 0.00 63 940.8
20260506130926 26 87 0.0 3.2 0.00 0.00 0.00 63 940.8
20260506130825 26 0 0.0 3.2 0.00 0.00 0.00 63 940.8
20260506130725 26 0 0.0 3.2 0.00 0.00 0.00 63 940.7
20260506130625 26 0 0.0 3.2 0.00 0.00 0.00 63 940.7
20260506130524 26 55 0.0 3.2 0.00 0.00 0.00 63 940.7
20260506130423 26 0 0.0 3.2 0.00 0.00 0.00 63 940.7
20260506130324 26 0 0.0 3.2 0.00 0.00 0.00 63 940.7
20260506130221 26 2 0.0 3.2 0.00 0.00 0.00 63 940.7
20260506130116 26 79 0.0 3.2 0.00 0.00 0.00 63 940.7
20260506130017 26 0 0.0 3.2 0.00 0.00 0.00 63 940.6
20260506125915 26 116 0.0 1.6 0.00 0.00 0.00 63 940.6
20260506125814 25 0 0.0 1.6 0.00 0.00 0.00 63 940.6
20260506125715 25 0 0.0 1.6 0.00 0.00 0.00 63 940.6
20260506125614 25 0 0.0 1.6 0.00 0.00 0.00 63 940.6
20260506125515 25 0 0.0 3.2 0.00 0.00 0.00 63 940.6
20260506125414 25 142 0.0 3.2 0.00 0.00 0.00 63 940.6
20260506125315 25 0 0.0 3.2 0.00 0.00 0.00 64 940.6
20260506125215 25 0 0.0 3.2 0.00 0.00 0.00 64 940.5
20260506125115 25 0 0.0 3.2 0.00 0.00 0.00 65 940.5
20260506125015 25 0 0.0 3.2 0.00 0.00 0.00 65 940.5
20260506124914 25 0 0.0 3.2 0.00 0.00 0.00 66 940.5
20260506124815 25 0 0.0 3.2 0.00 0.00 0.00 67 940.5
20260506124715 25 0 0.0 3.2 0.00 0.00 0.00 67 940.5
20260506124614 25 97 0.0 3.2 0.00 0.00 0.00 67 940.4
20260506124500 25 119 0.0 3.2 0.00 0.00 0.00 65 940.4
20260506124400 25 128 0.0 3.2 0.00 0.00 0.00 64 940.4
20260506124244 25 178 0.0 1.6 0.00 0.00 0.00 63 940.4
20260506124143 25 187 0.0 1.6 0.00 0.00 0.00 63 940.4
20260506124043 25 0 0.0 1.6 0.00 0.00 0.00 64 940.4
20260506123944 25 0 0.0 1.6 0.00 0.00 0.00 64 940.4
20260506123843 24 0 0.0 1.6 0.00 0.00 0.00 64 940.4
20260506123744 24 0 0.0 1.6 0.00 0.00 0.00 64 940.3
20260506123645 24 0 0.0 1.6 0.00 0.00 0.00 63 940.3
20260506123543 24 0 0.0 1.6 0.00 0.00 0.00 63 940.3
20260506123444 24 0 0.0 1.6 0.00 0.00 0.00 63 940.3
20260506123344 24 225 0.0 1.6 0.00 0.00 0.00 63 940.3
20260506123243 24 0 0.0 0.0 0.00 0.00 0.00 63 940.3
20260506123144 24 0 0.0 0.0 0.00 0.00 0.00 63 940.3
20260506123044 24 0 0.0 0.0 0.00 0.00 0.00 63 940.3
20260506122944 24 0 0.0 1.6 0.00 0.00 0.00 63 940.3
20260506122844 24 0 0.0 1.6 0.00 0.00 0.00 63 940.3
20260506122744 24 0 0.0 3.2 0.00 0.00 0.00 63 940.3
20260506122644 24 0 0.0 3.2 0.00 0.00 0.00 63 940.3
20260506122544 24 0 0.0 3.2 0.00 0.00 0.00 63 940.3
20260506122444 24 0 0.0 3.2 0.00 0.00 0.00 63 940.2
20260506122344 24 0 1.6 3.2 0.00 0.00 0.00 63 940.2
20260506122244 24 0 1.6 3.2 0.00 0.00 0.00 64 940.2
20260506122144 24 0 1.6 3.2 0.00 0.00 0.00 63 940.2
20260506122044 24 236 1.6 3.2 0.00 0.00 0.00 64 940.1
20260506121944 24 257 1.6 3.2 0.00 0.00 0.00 64 940.1
20260506121844 24 252 1.6 3.2 0.00 0.00 0.00 64 940.1
20260506121744 24 233 1.6 3.2 0.00 0.00 0.00 64 940.1
20260506121644 24 252 1.6 3.2 0.00 0.00 0.00 64 940.1
20260506121544 24 152 3.2 3.2 0.00 0.00 0.00 65 940.1
20260506121444 24 246 3.2 3.2 0.00 0.00 0.00 65 940.0
20260506121345 24 222 3.2 3.2 0.00 0.00 0.00 68 940.0
20260506121244 24 261 3.2 3.2 0.00 0.00 0.00 68 940.0
20260506121144 24 331 3.2 3.2 0.00 0.00 0.00 68 940.0
20260506121045 24 319 3.2 3.2 0.00 0.00 0.00 68 940.0
20260506120944 24 343 1.6 3.2 0.00 0.00 0.00 68 940.0
20260506120844 24 336 1.6 3.2 0.00 0.00 0.00 68 940.0
20260506120744 24 347 1.6 3.2 0.00 0.00 0.00 68 940.0
20260506120644 24 356 1.6 3.2 0.00 0.00 0.00 69 940.0
20260506120544 24 6 1.6 3.2 0.00 0.00 0.00 69 939.9
20260506120445 24 37 1.6 3.2 0.00 0.00 0.00 70 940.0
20260506120344 24 48 1.6 3.2 0.00 0.00 0.00 70 940.0
20260506120244 24 0 1.6 3.2 0.00 0.00 0.00 70 940.0
20260506120144 24 0 1.6 3.2 0.00 0.00 0.00 70 940.0
20260506120045 24 0 1.6 3.2 0.00 0.00 0.00 70 939.9
20260506115944 24 0 1.6 3.2 0.00 0.00 0.00 70 939.9
20260506115844 24 0 3.2 3.2 0.00 0.00 0.00 70 939.9
20260506115745 24 316 3.2 3.2 0.00 0.00 0.00 70 939.9
20260506115631 24 345 3.2 3.2 0.00 0.00 0.00 70 939.9
20260506115532 24 315 3.2 3.2 0.00 0.00 0.00 70 939.9
20260506115431 24 314 3.2 3.2 0.00 0.00 0.00 69 939.9
20260506115331 24 314 1.6 3.2 0.00 0.00 0.00 69 939.9
20260506115231 24 322 1.6 3.2 0.00 0.00 0.00 69 939.9
20260506115132 24 307 1.6 3.2 0.00 0.00 0.00 68 939.9
20260506115031 24 334 1.6 3.2 0.00 0.00 0.00 68 939.9
20260506114932 24 327 1.6 3.2 0.00 0.00 0.00 68 939.8
20260506114832 24 300 1.6 3.2 0.00 0.00 0.00 69 939.8
20260506114731 24 287 1.6 3.2 0.00 0.00 0.00 69 939.8
20260506114632 24 321 0.0 3.2 0.00 0.00 0.00 69 939.8
20260506114531 24 0 0.0 3.2 0.00 0.00 0.00 69 939.8
20260506114431 24 2 0.0 3.2 0.00 0.00 0.00 68 939.8
20260506114331 24 0 0.0 3.2 0.00 0.00 0.00 68 939.7
20260506114230 24 8 0.0 3.2 0.00 0.00 0.00 68 939.7
20260506114131 24 20 0.0 3.2 0.00 0.00 0.00 67 939.7
20260506114032 24 41 0.0 3.2 0.00 0.00 0.00 67 939.7
20260506113931 24 0 0.0 3.2 0.00 0.00 0.00 67 939.7
20260506113831 24 0 0.0 3.2 0.00 0.00 0.00 67 939.6
20260506113731 24 0 1.6 3.2 0.00 0.00 0.00 67 939.6
20260506113632 24 0 1.6 3.2 0.00 0.00 0.00 67 939.6
20260506113531 24 0 1.6 3.2 0.00 0.00 0.00 67 939.6
20260506113431 24 0 1.6 3.2 0.00 0.00 0.00 67 939.6
20260506113331 24 0 1.6 3.2 0.00 0.00 0.00 67 939.6
20260506113231 24 0 1.6 3.2 0.00 0.00 0.00 67 939.6
20260506113131 24 105 1.6 3.2 0.00 0.00 0.00 67 939.6
20260506113032 24 120 1.6 3.2 0.00 0.00 0.00 67 939.5
20260506112931 24 89 0.0 3.2 0.00 0.00 0.00 67 939.5
20260506112831 25 100 0.0 3.2 0.00 0.00 0.00 67 939.5
20260506112732 25 76 0.0 3.2 0.00 0.00 0.00 66 939.5
20260506112631 25 0 0.0 1.6 0.00 0.00 0.00 66 939.5
20260506112532 25 0 0.0 1.6 0.00 0.00 0.00 66 939.5
20260506112431 25 0 0.0 1.6 0.00 0.00 0.00 66 939.5
20260506112331 25 0 0.0 1.6 0.00 0.00 0.00 66 939.5
20260506112231 25 0 0.0 1.6 0.00 0.00 0.00 66 939.5
20260506112132 25 0 0.0 1.6 0.00 0.00 0.00 65 939.5
20260506112031 25 0 0.0 1.6 0.00 0.00 0.00 65 939.5
20260506111931 25 0 0.0 1.6 0.00 0.00 0.00 65 939.5
20260506111831 25 0 0.0 1.6 0.00 0.00 0.00 65 939.4
20260506111732 25 0 0.0 1.6 0.00 0.00 0.00 65 939.4
20260506111631 25 242 0.0 1.6 0.00 0.00 0.00 65 939.4
20260506111518 25 237 0.0 1.6 0.00 0.00 0.00 66 939.4
20260506111416 25 199 0.0 1.6 0.00 0.00 0.00 66 939.4
20260506111317 25 0 0.0 0.0 0.00 0.00 0.00 67 939.4
20260506111217 25 0 0.0 0.0 0.00 0.00 0.00 67 939.4
20260506111116 25 0 0.0 0.0 0.00 0.00 0.00 67 939.4
20260506111017 25 0 0.0 0.0 0.00 0.00 0.00 67 939.4
20260506110916 25 0 0.0 0.0 0.00 0.00 0.00 67 939.4
20260506110816 25 0 0.0 0.0 0.00 0.00 0.00 67 939.4
20260506110717 25 0 0.0 0.0 0.00 0.00 0.00 67 939.3
20260506110616 25 0 0.0 0.0 0.00 0.00 0.00 67 939.3
20260506110503 25 0 0.0 0.0 0.00 0.00 0.00 67 939.3
20260506110402 25 0 0.0 0.0 0.00 0.00 0.00 66 939.3
20260506110302 25 0 0.0 0.0 0.00 0.00 0.00 66 939.3
20260506110202 25 0 0.0 0.0 0.00 0.00 0.00 66 939.3
20260506110002 25 0 0.0 0.0 0.00 0.00 0.00 66 939.3
20260506105901 25 0 0.0 0.0 0.00 0.00 0.00 66 939.3
20260506105801 25 0 0.0 3.2 0.00 0.00 0.00 66 939.3
20260506105702 25 0 0.0 3.2 0.00 0.00 0.00 66 939.2
20260506105602 25 0 0.0 3.2 0.00 0.00 0.00 66 939.3
20260506105447 25 0 0.0 3.2 0.00 0.00 0.00 66 939.3
20260506105346 25 0 0.0 3.2 0.00 0.00 0.00 66 939.3
20260506105246 25 0 0.0 3.2 0.00 0.00 0.00 66 939.3
20260506105146 25 0 0.0 3.2 0.00 0.00 0.00 66 939.3
20260506105045 25 0 0.0 3.2 0.00 0.00 0.00 66 939.3
20260506104946 25 0 0.0 3.2 0.00 0.00 0.00 66 939.3
20260506104846 25 156 0.0 3.2 0.00 0.00 0.00 65 939.3
20260506104746 25 171 0.0 3.2 0.00 0.00 0.00 66 939.3
20260506104645 25 0 0.0 0.0 0.00 0.00 0.00 67 939.3
20260506104546 25 0 0.0 0.0 0.00 0.00 0.00 67 939.3
20260506104447 25 0 0.0 1.6 0.00 0.00 0.00 68 939.3
20260506104345 25 0 0.0 1.6 0.00 0.00 0.00 68 939.3
20260506104245 25 0 0.0 1.6 0.00 0.00 0.00 69 939.2
20260506104146 25 0 0.0 1.6 0.00 0.00 0.00 70 939.2
20260506104045 25 0 0.0 1.6 0.00 0.00 0.00 71 939.2
20260506103946 25 0 0.0 1.6 0.00 0.00 0.00 71 939.2
20260506103846 25 0 0.0 3.2 0.00 0.00 0.00 72 939.3
20260506103746 25 0 0.0 3.2 0.00 0.00 0.00 72 939.3
20260506103646 25 0 0.0 3.2 0.00 0.00 0.00 73 939.2
20260506103546 25 121 0.0 3.2 0.00 0.00 0.00 73 939.3
20260506103446 25 0 0.0 3.2 0.00 0.00 0.00 73 939.3
20260506103346 25 120 0.0 3.2 0.00 0.00 0.00 73 939.3
20260506103246 25 0 0.0 3.2 0.00 0.00 0.00 72 939.3
20260506103145 25 0 0.0 3.2 0.00 0.00 0.00 73 939.3
20260506103046 25 0 0.0 3.2 0.00 0.00 0.00 73 939.2
20260506102946 25 88 0.0 3.2 0.00 0.00 0.00 73 939.2
20260506102846 25 0 0.0 3.2 0.00 0.00 0.00 73 939.2
20260506102746 25 0 0.0 3.2 0.00 0.00 0.00 72 939.3
20260506102646 25 0 0.0 3.2 0.00 0.00 0.00 72 939.3
20260506102546 25 0 0.0 3.2 0.00 0.00 0.00 71 939.3
20260506102446 25 0 0.0 3.2 0.00 0.00 0.00 71 939.3
20260506102346 25 0 0.0 3.2 0.00 0.00 0.00 71 939.2
20260506102246 25 104 0.0 3.2 0.00 0.00 0.00 71 939.2
20260506102147 25 100 1.6 4.8 0.00 0.00 0.00 71 939.2
20260506102046 25 127 1.6 4.8 0.00 0.00 0.00 70 939.2
20260506101946 25 0 1.6 4.8 0.00 0.00 0.00 69 939.1
20260506101846 25 0 1.6 4.8 0.00 0.00 0.00 69 939.1
20260506101746 25 0 1.6 4.8 0.00 0.00 0.00 69 939.1
20260506101646 25 0 1.6 4.8 0.00 0.00 0.00 69 939.1
20260506101546 25 0 1.6 4.8 0.00 0.00 0.00 68 939.1
20260506101446 25 98 3.2 4.8 0.00 0.00 0.00 68 939.1
20260506101332 25 112 3.2 4.8 0.00 0.00 0.00 68 939.1
20260506101233 25 86 3.2 4.8 0.00 0.00 0.00 67 939.1
20260506101133 25 82 3.2 4.8 0.00 0.00 0.00 67 939.1
20260506101033 25 66 3.2 4.8 0.00 0.00 0.00 67 939.1
20260506100933 25 69 3.2 4.8 0.00 0.00 0.00 67 939.1
20260506100818 25 53 3.2 4.8 0.00 0.00 0.00 67 939.1
20260506100719 25 71 3.2 4.8 0.00 0.00 0.00 67 939.0
20260506100604 25 68 3.2 4.8 0.00 0.00 0.00 68 939.0
20260506100503 25 84 3.2 4.8 0.00 0.00 0.00 68 939.0
20260506100404 25 73 3.2 4.8 0.00 0.00 0.00 69 939.0
20260506100302 25 0 3.2 4.8 0.00 0.00 0.00 69 939.0
20260506100146 25 63 3.2 4.8 0.00 0.00 0.00 68 939.0
20260506100047 25 50 3.2 4.8 0.00 0.00 0.00 68 939.0
20260506095946 26 64 1.6 4.8 0.00 0.00 0.00 68 939.0
20260506095847 26 62 1.6 4.8 0.00 0.00 0.00 68 939.0
20260506095746 26 62 1.6 3.2 0.00 0.00 0.00 68 939.0
20260506095647 26 66 1.6 4.8 0.00 0.00 0.00 68 938.9
20260506095547 26 72 1.6 4.8 0.00 0.00 0.00 67 938.9
20260506095446 26 86 1.6 4.8 0.00 0.00 0.00 68 938.9
20260506095347 26 0 1.6 4.8 0.00 0.00 0.00 68 938.9
20260506095247 26 72 1.6 4.8 0.00 0.00 0.00 68 939.0
20260506095147 26 69 1.6 4.8 0.00 0.00 0.00 68 939.0
20260506095048 26 109 3.2 4.8 0.00 0.00 0.00 68 938.9
20260506094947 26 75 3.2 4.8 0.00 0.00 0.00 68 938.9
20260506094846 26 93 3.2 4.8 0.00 0.00 0.00 68 938.9
20260506094747 26 93 3.2 4.8 0.00 0.00 0.00 68 938.9
20260506094647 26 91 3.2 3.2 0.00 0.00 0.00 69 938.9
20260506094547 26 116 3.2 4.8 0.00 0.00 0.00 69 938.9
20260506094447 26 84 3.2 4.8 0.00 0.00 0.00 69 938.9
20260506094346 26 82 3.2 4.8 0.00 0.00 0.00 70 938.9
20260506094246 26 87 3.2 4.8 0.00 0.00 0.00 70 938.8
20260506094147 26 91 3.2 4.8 0.00 0.00 0.00 70 938.8
20260506094047 26 111 1.6 4.8 0.00 0.00 0.00 70 938.8
20260506093946 26 83 1.6 4.8 0.00 0.00 0.00 70 938.8
20260506093847 26 85 1.6 4.8 0.00 0.00 0.00 70 938.8
20260506093746 26 101 3.2 4.8 0.00 0.00 0.00 70 938.7
20260506093647 26 119 3.2 9.7 0.00 0.00 0.00 71 938.7
20260506093533 26 128 3.2 9.7 0.00 0.00 0.00 71 938.7
20260506093434 26 108 3.2 9.7 0.00 0.00 0.00 71 938.7
20260506093334 26 82 3.2 9.7 0.00 0.00 0.00 71 938.7
20260506093234 26 92 3.2 9.7 0.00 0.00 0.00 72 938.7
20260506093130 26 0 3.2 9.7 0.00 0.00 0.00 72 938.7
20260506093025 26 134 3.2 9.7 0.00 0.00 0.00 72 938.7
20260506092924 26 145 4.8 9.7 0.00 0.00 0.00 73 938.7
20260506092824 26 115 4.8 9.7 0.00 0.00 0.00 73 938.7
20260506092724 26 98 4.8 9.7 0.00 0.00 0.00 72 938.7
20260506092619 26 124 4.8 9.7 0.00 0.00 0.00 72 938.7
20260506092503 26 118 3.2 6.4 0.00 0.00 0.00 72 938.7
20260506092404 26 98 3.2 6.4 0.00 0.00 0.00 72 938.8
20260506092306 26 117 3.2 6.4 0.00 0.00 0.00 72 938.8
20260506092148 26 135 3.2 6.4 0.00 0.00 0.00 72 938.8
20260506092047 26 128 3.2 6.4 0.00 0.00 0.00 71 938.8
20260506091948 26 123 3.2 8.0 0.00 0.00 0.00 71 938.8
20260506091848 26 111 3.2 8.0 0.00 0.00 0.00 71 938.8
20260506091747 26 99 3.2 8.0 0.00 0.00 0.00 71 938.8
20260506091648 26 109 3.2 8.0 0.00 0.00 0.00 71 938.9
20260506091549 26 75 3.2 8.0 0.00 0.00 0.00 70 938.8
20260506091443 26 88 4.8 8.0 0.00 0.00 0.00 70 938.8
20260506091343 26 92 4.8 8.0 0.00 0.00 0.00 70 938.8
20260506091243 26 90 4.8 8.0 0.00 0.00 0.00 70 938.8
20260506091137 26 113 4.8 8.0 0.00 0.00 0.00 69 938.8
20260506091034 26 110 4.8 8.0 0.00 0.00 0.00 68 938.8
20260506090934 26 111 3.2 6.4 0.00 0.00 0.00 67 938.9
20260506090834 26 116 3.2 6.4 0.00 0.00 0.00 66 938.9
20260506090734 26 124 3.2 6.4 0.00 0.00 0.00 64 938.9
20260506090634 26 104 3.2 6.4 0.00 0.00 0.00 63 939.0
20260506090534 26 111 3.2 6.4 0.00 0.00 0.00 62 939.0
20260506090434 26 138 3.2 6.4 0.00 0.00 0.00 61 939.0
20260506090334 26 115 3.2 4.8 0.00 0.00 0.00 61 939.0
20260506090219 26 132 3.2 4.8 0.00 0.00 0.00 60 939.0
20260506090119 26 91 3.2 4.8 0.00 0.00 0.00 59 939.0
20260506090019 26 88 3.2 4.8 0.00 0.00 0.00 58 939.0
20260506085919 26 93 3.2 6.4 0.00 0.00 0.00 58 939.0
20260506085820 26 71 3.2 6.4 0.00 0.00 0.00 58 939.1
20260506085720 26 85 3.2 6.4 0.00 0.00 0.00 57 939.1
20260506085619 26 90 3.2 6.4 0.00 0.00 0.00 57 939.1
20260506085519 26 86 3.2 6.4 0.00 0.00 0.00 57 939.1
20260506085420 26 86 3.2 6.4 0.00 0.00 0.00 57 939.1
20260506085319 26 30 3.2 6.4 0.00 0.00 0.00 57 939.2
20260506085219 26 26 3.2 6.4 0.00 0.00 0.00 57 939.2
20260506085120 26 40 4.8 6.4 0.00 0.00 0.00 57 939.2
20260506085020 26 20 4.8 6.4 0.00 0.00 0.00 57 939.2
20260506084919 26 1 4.8 6.4 0.00 0.00 0.00 57 939.2
20260506084820 26 352 4.8 6.4 0.00 0.00 0.00 57 939.1
20260506084720 26 5 4.8 6.4 0.00 0.00 0.00 57 939.1
20260506084619 26 342 4.8 6.4 0.00 0.00 0.00 57 939.1
20260506084519 26 5 4.8 6.4 0.00 0.00 0.00 57 939.1
20260506084420 26 358 4.8 6.4 0.00 0.00 0.00 57 939.1
20260506084319 26 4 4.8 6.4 0.00 0.00 0.00 57 939.1
20260506084220 26 2 4.8 6.4 0.00 0.00 0.00 57 939.1
20260506084119 26 20 4.8 6.4 0.00 0.00 0.00 56 939.0
20260506084020 26 39 4.8 6.4 0.00 0.00 0.00 56 939.0
20260506083919 26 23 4.8 6.4 0.00 0.00 0.00 56 939.0
20260506083821 26 28 4.8 6.4 0.00 0.00 0.00 56 939.0
20260506083719 26 28 4.8 6.4 0.00 0.00 0.00 56 939.0
20260506083620 26 53 4.8 8.0 0.00 0.00 0.00 56 939.0
20260506083519 27 61 4.8 8.0 0.00 0.00 0.00 56 939.0
20260506083420 27 24 4.8 8.0 0.00 0.00 0.00 56 939.0
20260506083320 27 20 4.8 8.0 0.00 0.00 0.00 56 939.0
20260506083219 27 28 4.8 9.7 0.00 0.00 0.00 56 939.0
20260506083120 27 357 4.8 9.7 0.00 0.00 0.00 56 939.0
20260506083020 27 23 4.8 9.7 0.00 0.00 0.00 56 939.0
20260506082919 27 19 6.4 9.7 0.00 0.00 0.00 56 938.9
20260506082814 27 1 6.4 9.7 0.00 0.00 0.00 55 938.9
20260506082714 27 0 6.4 9.7 0.00 0.00 0.00 55 938.9
20260506082608 27 318 6.4 9.7 0.00 0.00 0.00 55 938.9
20260506082508 27 319 6.4 9.7 0.00 0.00 0.00 55 938.9
20260506082408 27 340 6.4 9.7 0.00 0.00 0.00 55 938.9
20260506082308 27 329 6.4 9.7 0.00 0.00 0.00 55 938.9
20260506082207 27 345 6.4 9.7 0.00 0.00 0.00 55 938.9
20260506082108 27 317 6.4 9.7 0.00 0.00 0.00 55 938.9
20260506082009 27 315 6.4 9.7 0.00 0.00 0.00 55 938.8
20260506081908 27 304 6.4 9.7 0.00 0.00 0.00 55 938.8
20260506081808 27 327 6.4 9.7 0.00 0.00 0.00 55 938.8
20260506081708 27 329 6.4 9.7 0.00 0.00 0.00 55 938.8
20260506081608 27 302 6.4 9.7 0.00 0.00 0.00 55 938.8
20260506081508 27 305 6.4 9.7 0.00 0.00 0.00 55 938.8
20260506081408 27 311 6.4 9.7 0.00 0.00 0.00 54 938.8
20260506081308 27 296 6.4 9.7 0.00 0.00 0.00 54 938.8
20260506081208 27 288 6.4 9.7 0.00 0.00 0.00 54 938.8
20260506081108 27 299 6.4 9.7 0.00 0.00 0.00 54 938.8
20260506081008 27 283 6.4 9.7 0.00 0.00 0.00 54 938.8
20260506080908 27 292 6.4 9.7 0.00 0.00 0.00 54 938.7
20260506080808 27 307 6.4 9.7 0.00 0.00 0.00 54 938.7
20260506080708 27 308 4.8 9.7 0.00 0.00 0.00 54 938.7
20260506080609 27 298 6.4 9.7 0.00 0.00 0.00 54 938.7
20260506080508 27 306 6.4 9.7 0.00 0.00 0.00 54 938.7
20260506080405 27 304 6.4 9.7 0.00 0.00 0.00 54 938.7
20260506080306 27 320 6.4 8.0 0.00 0.00 0.00 54 938.7
20260506080206 27 289 4.8 8.0 0.00 0.00 0.00 54 938.7
20260506080105 27 296 4.8 8.0 0.00 0.00 0.00 54 938.7
20260506073449 28 295 4.8 6.4 0.00 0.00 0.00 53 938.6
20260506073349 28 311 3.2 6.4 0.00 0.00 0.00 53 938.6
20260506073249 28 310 3.2 6.4 0.00 0.00 0.00 53 938.6
20260506073148 28 302 3.2 6.4 0.00 0.00 0.00 53 938.6
20260506073049 28 303 3.2 6.4 0.00 0.00 0.00 53 938.6
20260506072948 28 298 3.2 6.4 0.00 0.00 0.00 53 938.6
20260506072849 28 275 3.2 6.4 0.00 0.00 0.00 53 938.6
20260506072749 28 283 3.2 6.4 0.00 0.00 0.00 53 938.6
20260506072649 28 258 3.2 4.8 0.00 0.00 0.00 53 938.6
20260506072549 28 298 1.6 3.2 0.00 0.00 0.00 53 938.5
20260506072449 28 261 3.2 3.2 0.00 0.00 0.00 53 938.5
20260506072350 28 283 3.2 3.2 0.00 0.00 0.00 52 938.6
20260506072249 28 280 3.2 4.8 0.00 0.00 0.00 52 938.6
20260506072149 28 277 3.2 6.4 0.00 0.00 0.00 52 938.6
20260506072036 28 286 3.2 8.0 0.00 0.00 0.00 52 938.6
20260506071936 28 317 3.2 8.0 0.00 0.00 0.00 52 938.6
20260506071835 28 305 3.2 8.0 0.00 0.00 0.00 52 938.6
20260506071720 28 280 4.8 8.0 0.00 0.00 0.00 52 938.6
20260506071620 28 266 4.8 9.7 0.00 0.00 0.00 52 938.6
20260506071506 28 238 4.8 9.7 0.00 0.00 0.00 52 938.6
20260506071406 28 306 4.8 9.7 0.00 0.00 0.00 52 938.6
20260506071305 28 272 4.8 9.7 0.00 0.00 0.00 52 938.6
20260506071206 28 286 4.8 9.7 0.00 0.00 0.00 52 938.6
20260506071058 28 298 4.8 9.7 0.00 0.00 0.00 51 938.6
20260506070957 28 315 4.8 9.7 0.00 0.00 0.00 51 938.6
20260506070857 28 295 4.8 9.7 0.00 0.00 0.00 51 938.5
20260506070757 28 323 4.8 9.7 0.00 0.00 0.00 51 938.5
20260506070657 28 309 6.4 9.7 0.00 0.00 0.00 51 938.5
20260506070557 28 303 4.8 8.0 0.00 0.00 0.00 51 938.5
20260506070458 28 333 4.8 8.0 0.00 0.00 0.00 51 938.5
20260506070357 28 308 4.8 8.0 0.00 0.00 0.00 51 938.5
20260506070250 28 291 4.8 8.0 0.00 0.00 0.00 51 938.5
20260506070149 28 294 4.8 8.0 0.00 0.00 0.00 51 938.5
20260506062450 29 283 4.8 8.0 0.00 0.00 0.00 49 938.4
20260506062336 29 267 4.8 6.4 0.00 0.00 0.00 49 938.4
20260506062221 29 296 3.2 6.4 0.00 0.00 0.00 49 938.4
20260506062122 29 303 3.2 6.4 0.00 0.00 0.00 49 938.4
20260506062022 29 285 3.2 6.4 0.00 0.00 0.00 49 938.4
20260506061922 29 301 4.8 6.4 0.00 0.00 0.00 49 938.4
20260506061822 29 282 4.8 8.0 0.00 0.00 0.00 49 938.3
20260506061722 29 296 4.8 8.0 0.00 0.00 0.00 49 938.3
20260506061622 29 299 4.8 9.7 0.00 0.00 0.00 49 938.3
20260506061522 29 278 4.8 9.7 0.00 0.00 0.00 49 938.3
20260506061422 29 301 4.8 9.7 0.00 0.00 0.00 49 938.3
20260506061316 29 307 4.8 9.7 0.00 0.00 0.00 49 938.4
20260506061210 29 289 6.4 9.7 0.00 0.00 0.00 49 938.4
20260506061110 29 252 6.4 9.7 0.00 0.00 0.00 49 938.3
20260506061010 29 272 6.4 9.7 0.00 0.00 0.00 49 938.3
20260506060910 29 262 6.4 9.7 0.00 0.00 0.00 49 938.3
20260506060811 29 291 6.4 9.7 0.00 0.00 0.00 49 938.3
20260506060710 29 292 6.4 9.7 0.00 0.00 0.00 49 938.3
20260506060611 29 296 6.4 9.7 0.00 0.00 0.00 48 938.3
20260506060510 29 303 6.4 9.7 0.00 0.00 0.00 48 938.3
20260506060411 29 315 6.4 9.7 0.00 0.00 0.00 48 938.3
20260506060311 29 314 4.8 9.7 0.00 0.00 0.00 48 938.3
20260506060210 29 292 4.8 9.7 0.00 0.00 0.00 48 938.3
20260506060107 29 292 4.8 8.0 0.00 0.00 0.00 48 938.3
20260506051338 30 295 4.8 8.0 0.00 0.00 0.00 46 938.2
20260506051223 30 303 4.8 8.0 0.00 0.00 0.00 46 938.2
20260506051108 30 299 4.8 8.0 0.00 0.00 0.00 46 938.2
20260506051008 30 305 4.8 9.7 0.00 0.00 0.00 46 938.2
20260506050908 30 238 4.8 9.7 0.00 0.00 0.00 46 938.2
20260506050808 30 283 4.8 9.7 0.00 0.00 0.00 46 938.2
20260506050708 30 271 4.8 9.7 0.00 0.00 0.00 46 938.2
20260506050609 30 257 4.8 9.7 0.00 0.00 0.00 46 938.1
20260506050459 30 308 4.8 9.7 0.00 0.00 0.00 45 938.1
20260506050359 30 295 4.8 9.7 0.00 0.00 0.00 45 938.1
20260506050253 30 290 4.8 9.7 0.00 0.00 0.00 45 938.1
20260506050153 30 277 4.8 9.7 0.00 0.00 0.00 45 938.1
20260506045053 30 295 6.4 9.7 0.00 0.00 0.00 45 938.0
20260506044953 30 292 6.4 9.7 0.00 0.00 0.00 45 937.9
20260506044853 30 280 6.4 11.3 0.00 0.00 0.00 45 937.9
20260506044753 30 307 6.4 11.3 0.00 0.00 0.00 45 937.9
20260506044653 30 302 6.4 11.3 0.00 0.00 0.00 44 937.9
20260506044554 30 304 6.4 11.3 0.00 0.00 0.00 44 937.9
20260506044453 30 293 6.4 11.3 0.00 0.00 0.00 44 937.8
20260506044354 30 293 6.4 11.3 0.00 0.00 0.00 44 937.9
20260506044253 30 284 6.4 11.3 0.00 0.00 0.00 44 937.9
20260506044154 30 292 6.4 11.3 0.00 0.00 0.00 44 937.9
20260506044054 30 310 6.4 11.3 0.00 0.00 0.00 44 937.9
20260506043953 30 289 4.8 11.3 0.00 0.00 0.00 43 937.9
20260506043854 30 279 4.8 9.7 0.00 0.00 0.00 43 937.9
20260506043753 30 307 4.8 9.7 0.00 0.00 0.00 43 937.9
20260506043653 30 291 4.8 9.7 0.00 0.00 0.00 43 937.9
20260506043554 30 261 4.8 9.7 0.00 0.00 0.00 43 937.9
20260506043452 30 279 4.8 9.7 0.00 0.00 0.00 43 937.9
20260506043352 30 270 4.8 9.7 0.00 0.00 0.00 42 937.9
20260506043252 30 273 4.8 9.7 0.00 0.00 0.00 42 937.9
20260506043152 30 278 4.8 8.0 0.00 0.00 0.00 42 937.8
20260506043053 30 224 4.8 8.0 0.00 0.00 0.00 42 937.8
20260506042952 30 293 4.8 8.0 0.00 0.00 0.00 42 937.8
20260506042852 30 288 4.8 8.0 0.00 0.00 0.00 42 937.8
20260506042752 30 285 6.4 9.7 0.00 0.00 0.00 41 937.8
20260506042653 30 294 6.4 9.7 0.00 0.00 0.00 41 937.7
20260506042552 30 286 6.4 9.7 0.00 0.00 0.00 41 937.7
20260506042452 30 270 6.4 9.7 0.00 0.00 0.00 41 937.7
20260506042352 30 282 6.4 9.7 0.00 0.00 0.00 41 937.7
20260506042254 30 296 6.4 9.7 0.00 0.00 0.00 41 937.7
20260506042152 30 269 6.4 9.7 0.00 0.00 0.00 41 937.6
20260506042052 31 286 6.4 9.7 0.00 0.00 0.00 40 937.6
20260506041952 31 257 4.8 9.7 0.00 0.00 0.00 40 937.6
20260506041853 31 290 4.8 9.7 0.00 0.00 0.00 40 937.6
20260506041752 31 300 4.8 8.0 0.00 0.00 0.00 40 937.6
20260506041652 31 286 4.8 8.0 0.00 0.00 0.00 40 937.6
20260506041553 31 310 4.8 8.0 0.00 0.00 0.00 40 937.5
20260506041453 31 260 6.4 9.7 0.00 0.00 0.00 40 937.6
20260506041352 31 260 6.4 9.7 0.00 0.00 0.00 40 937.6
20260506041252 31 278 6.4 11.3 0.00 0.00 0.00 41 937.5
20260506041153 31 276 6.4 11.3 0.00 0.00 0.00 41 937.5
20260506041048 31 292 6.4 14.5 0.00 0.00 0.00 41 937.5
20260506040947 31 288 6.4 14.5 0.00 0.00 0.00 41 937.5
20260506040848 31 286 6.4 14.5 0.00 0.00 0.00 41 937.5
20260506040748 31 256 8.0 14.5 0.00 0.00 0.00 41 937.4
20260506040648 31 289 8.0 14.5 0.00 0.00 0.00 41 937.4
20260506040548 31 294 8.0 14.5 0.00 0.00 0.00 41 937.4
20260506040448 31 293 8.0 14.5 0.00 0.00 0.00 40 937.4
20260506040348 31 303 8.0 14.5 0.00 0.00 0.00 40 937.3
20260506040247 31 268 8.0 14.5 0.00 0.00 0.00 40 937.3
20260506040148 31 291 8.0 14.5 0.00 0.00 0.00 40 937.3
20260506040048 31 291 8.0 14.5 0.00 0.00 0.00 40 937.3
20260506035948 31 307 8.0 11.3 0.00 0.00 0.00 40 937.3
20260506035848 31 302 8.0 11.3 0.00 0.00 0.00 40 937.3
20260506035748 31 292 8.0 11.3 0.00 0.00 0.00 40 937.2
20260506035648 31 284 8.0 11.3 0.00 0.00 0.00 40 937.2
20260506035548 31 300 8.0 11.3 0.00 0.00 0.00 39 937.2
20260506035448 31 296 8.0 11.3 0.00 0.00 0.00 39 937.2
20260506035348 31 312 8.0 11.3 0.00 0.00 0.00 39 937.2
20260506035248 31 301 8.0 11.3 0.00 0.00 0.00 39 937.1
20260506035148 31 297 8.0 11.3 0.00 0.00 0.00 39 937.1
20260506035049 31 300 8.0 11.3 0.00 0.00 0.00 39 937.1
20260506034948 31 321 8.0 11.3 0.00 0.00 0.00 39 937.1
20260506034849 31 283 8.0 11.3 0.00 0.00 0.00 39 937.1
20260506034748 31 303 8.0 11.3 0.00 0.00 0.00 39 937.1
20260506034648 31 317 8.0 11.3 0.00 0.00 0.00 39 937.0
20260506034549 31 329 8.0 11.3 0.00 0.00 0.00 39 937.0
20260506034448 31 347 8.0 11.3 0.00 0.00 0.00 39 936.9
20260506034349 31 334 8.0 11.3 0.00 0.00 0.00 39 937.0
20260506034248 31 335 8.0 11.3 0.00 0.00 0.00 38 937.0
20260506034149 31 341 8.0 11.3 0.00 0.00 0.00 38 937.0
20260506034049 31 305 8.0 11.3 0.00 0.00 0.00 38 936.9
20260506033949 31 323 8.0 11.3 0.00 0.00 0.00 38 936.9
20260506033848 32 323 8.0 12.9 0.00 0.00 0.00 38 936.9
20260506033748 32 336 8.0 12.9 0.00 0.00 0.00 38 936.9
20260506033649 32 312 8.0 12.9 0.00 0.00 0.00 38 936.9
20260506033548 32 317 8.0 12.9 0.00 0.00 0.00 38 936.9
20260506033449 32 320 8.0 12.9 0.00 0.00 0.00 38 936.8
20260506033348 32 354 8.0 12.9 0.00 0.00 0.00 38 936.8
20260506033249 32 348 6.4 12.9 0.00 0.00 0.00 38 936.8
20260506033148 32 336 6.4 12.9 0.00 0.00 0.00 37 936.8
20260506033048 32 338 6.4 12.9 0.00 0.00 0.00 37 936.8
20260506032949 32 329 6.4 12.9 0.00 0.00 0.00 37 936.8
20260506032848 32 331 6.4 12.9 0.00 0.00 0.00 37 936.7
20260506032749 32 338 6.4 11.3 0.00 0.00 0.00 37 936.7
20260506032649 32 319 6.4 14.5 0.00 0.00 0.00 36 936.7
20260506032548 32 327 6.4 14.5 0.00 0.00 0.00 36 936.7
20260506032442 32 312 6.4 14.5 0.00 0.00 0.00 36 936.7
20260506032343 32 311 6.4 14.5 0.00 0.00 0.00 36 936.7
20260506032242 32 349 6.4 14.5 0.00 0.00 0.00 36 936.7
20260506032143 32 333 6.4 14.5 0.00 0.00 0.00 35 936.7
20260506032043 32 14 8.0 14.5 0.00 0.00 0.00 35 936.7
20260506031942 33 350 8.0 14.5 0.00 0.00 0.00 35 936.7
20260506031837 33 34 8.0 14.5 0.00 0.00 0.00 35 936.7
20260506031737 33 39 8.0 14.5 0.00 0.00 0.00 36 936.7
20260506031637 33 26 8.0 14.5 0.00 0.00 0.00 35 936.7
20260506031537 33 20 8.0 14.5 0.00 0.00 0.00 35 936.6
20260506031437 33 16 8.0 12.9 0.00 0.00 0.00 35 936.6
20260506031337 33 57 9.7 16.1 0.00 0.00 0.00 35 936.6
20260506031237 33 5 9.7 16.1 0.00 0.00 0.00 34 936.6
20260506031137 33 32 9.7 16.1 0.00 0.00 0.00 34 936.6
20260506031037 33 35 9.7 16.1 0.00 0.00 0.00 34 936.6
20260506030937 33 51 9.7 16.1 0.00 0.00 0.00 34 936.6
20260506030837 33 12 9.7 16.1 0.00 0.00 0.00 34 936.5
20260506030738 33 39 9.7 16.1 0.00 0.00 0.00 33 936.5
20260506030638 33 42 11.3 16.1 0.00 0.00 0.00 33 936.5
20260506030537 33 63 11.3 16.1 0.00 0.00 0.00 33 936.5
20260506030437 33 33 11.3 16.1 0.00 0.00 0.00 32 936.5
20260506030337 33 33 11.3 16.1 0.00 0.00 0.00 32 936.5
20260506030238 33 42 11.3 16.1 0.00 0.00 0.00 31 936.4
20260506030137 33 27 11.3 16.1 0.00 0.00 0.00 31 936.4
20260506030037 33 340 9.7 16.1 0.00 0.00 0.00 31 936.4
20260506025937 33 11 9.7 16.1 0.00 0.00 0.00 32 936.4
20260506025837 33 20 9.7 16.1 0.00 0.00 0.00 32 936.4
20260506025738 33 35 9.7 16.1 0.00 0.00 0.00 31 936.4
20260506025637 33 37 9.7 17.7 0.00 0.00 0.00 31 936.4
20260506025537 33 26 9.7 17.7 0.00 0.00 0.00 31 936.2
20260506025437 33 58 9.7 17.7 0.00 0.00 0.00 31 936.3
20260506025337 33 18 9.7 17.7 0.00 0.00 0.00 30 936.3
20260506025238 33 35 11.3 17.7 0.00 0.00 0.00 29 936.3
20260506025137 33 62 11.3 17.7 0.00 0.00 0.00 29 936.3
20260506025037 33 16 11.3 17.7 0.00 0.00 0.00 29 936.3
20260506024937 33 15 11.3 17.7 0.00 0.00 0.00 29 936.3
20260506024838 33 42 11.3 17.7 0.00 0.00 0.00 29 936.3
20260506024737 33 32 11.3 17.7 0.00 0.00 0.00 29 936.2
20260506024638 33 27 9.7 17.7 0.00 0.00 0.00 29 936.1
20260506024537 33 26 9.7 19.3 0.00 0.00 0.00 28 936.1
20260506024433 33 37 11.3 24.1 0.00 0.00 0.00 28 936.1
20260506024333 33 21 11.3 24.1 0.00 0.00 0.00 28 936.1
20260506024234 33 42 11.3 24.1 0.00 0.00 0.00 28 936.1
20260506024133 33 12 11.3 24.1 0.00 0.00 0.00 28 936.0
20260506024033 33 11 11.3 24.1 0.00 0.00 0.00 28 936.0
20260506023933 33 25 11.3 24.1 0.00 0.00 0.00 28 936.1
20260506023833 33 347 12.9 24.1 0.00 0.00 0.00 28 936.0
20260506023732 33 70 12.9 24.1 0.00 0.00 0.00 28 936.0
20260506023633 33 30 12.9 24.1 0.00 0.00 0.00 28 936.0
20260506023533 34 53 12.9 24.1 0.00 0.00 0.00 28 935.9
20260506023433 34 64 12.9 24.1 0.00 0.00 0.00 28 935.9
20260506023333 34 63 11.3 24.1 0.00 0.00 0.00 28 935.9
20260506023233 34 39 11.3 24.1 0.00 0.00 0.00 28 935.8
20260506023133 34 52 9.7 24.1 0.00 0.00 0.00 28 935.9
20260506023033 34 39 9.7 24.1 0.00 0.00 0.00 28 935.9
20260506022933 34 64 9.7 24.1 0.00 0.00 0.00 28 935.9
20260506022833 34 106 9.7 20.9 0.00 0.00 0.00 28 935.9
20260506022733 34 63 9.7 25.7 0.00 0.00 0.00 27 935.9
20260506022632 34 97 11.3 25.7 0.00 0.00 0.00 27 935.9
20260506022532 34 66 11.3 25.7 0.00 0.00 0.00 27 935.8
20260506022430 34 75 11.3 25.7 0.00 0.00 0.00 27 935.8
20260506022329 34 71 11.3 25.7 0.00 0.00 0.00 27 935.8
20260506022230 34 25 11.3 25.7 0.00 0.00 0.00 27 935.9
20260506022130 34 38 11.3 25.7 0.00 0.00 0.00 26 935.9
20260506022029 34 69 11.3 25.7 0.00 0.00 0.00 26 935.8
20260506021929 34 78 11.3 25.7 0.00 0.00 0.00 27 935.8
20260506021826 34 42 11.3 25.7 0.00 0.00 0.00 27 935.8
20260506021726 34 35 11.3 20.9 0.00 0.00 0.00 27 935.8
20260506021627 34 83 9.7 17.7 0.00 0.00 0.00 27 935.8
20260506021521 34 51 11.3 17.7 0.00 0.00 0.00 27 935.8
20260506021421 34 34 11.3 19.3 0.00 0.00 0.00 27 935.9
20260506021321 34 35 11.3 19.3 0.00 0.00 0.00 27 935.8
20260506021215 34 35 11.3 19.3 0.00 0.00 0.00 27 935.8
20260506021113 34 28 11.3 19.3 0.00 0.00 0.00 27 935.9
20260506021011 35 25 11.3 19.3 0.00 0.00 0.00 26 935.8
20260506020912 35 28 11.3 19.3 0.00 0.00 0.00 26 935.8
20260506020808 35 38 12.9 19.3 0.00 0.00 0.00 26 935.8
20260506020707 35 39 12.9 19.3 0.00 0.00 0.00 26 935.8
20260506020608 35 5 12.9 19.3 0.00 0.00 0.00 26 935.8
20260506020509 35 37 12.9 19.3 0.00 0.00 0.00 26 935.8
20260506020409 35 14 11.3 17.7 0.00 0.00 0.00 26 935.8
20260506020309 35 36 11.3 17.7 0.00 0.00 0.00 26 935.8
20260506020209 35 38 11.3 17.7 0.00 0.00 0.00 26 935.8
20260506020109 35 45 11.3 16.1 0.00 0.00 0.00 26 935.8
20260506020009 35 15 11.3 16.1 0.00 0.00 0.00 26 935.8
20260506015909 35 26 11.3 16.1 0.00 0.00 0.00 26 935.8
20260506015808 35 11 11.3 16.1 0.00 0.00 0.00 26 935.8
20260506015709 35 40 11.3 16.1 0.00 0.00 0.00 26 935.8
20260506015609 35 26 11.3 16.1 0.00 0.00 0.00 26 935.8
20260506015509 35 30 11.3 14.5 0.00 0.00 0.00 26 935.8
20260506015409 35 40 9.7 14.5 0.00 0.00 0.00 26 935.8
20260506015309 35 27 11.3 17.7 0.00 0.00 0.00 26 935.8
20260506015209 35 43 9.7 17.7 0.00 0.00 0.00 26 935.7
20260506015109 35 16 9.7 17.7 0.00 0.00 0.00 26 935.7
20260506015009 35 18 9.7 17.7 0.00 0.00 0.00 26 935.7
20260506014909 35 31 11.3 17.7 0.00 0.00 0.00 25 935.7
20260506014809 35 21 11.3 17.7 0.00 0.00 0.00 25 935.7
20260506014709 35 27 11.3 17.7 0.00 0.00 0.00 25 935.7
20260506014610 35 30 11.3 17.7 0.00 0.00 0.00 25 935.7
20260506014509 35 10 11.3 17.7 0.00 0.00 0.00 25 935.7
20260506014410 35 23 11.3 17.7 0.00 0.00 0.00 25 935.6
20260506014310 35 40 9.7 17.7 0.00 0.00 0.00 25 935.6
20260506014209 35 352 11.3 17.7 0.00 0.00 0.00 25 935.6
20260506014110 35 25 11.3 17.7 0.00 0.00 0.00 25 935.6
20260506014010 35 32 11.3 17.7 0.00 0.00 0.00 25 935.6
20260506013910 35 20 11.3 17.7 0.00 0.00 0.00 25 935.6
20260506013805 35 39 11.3 17.7 0.00 0.00 0.00 25 935.6
20260506013704 35 41 11.3 17.7 0.00 0.00 0.00 25 935.6
20260506013604 35 40 11.3 17.7 0.00 0.00 0.00 25 935.6
20260506013503 35 25 11.3 17.7 0.00 0.00 0.00 25 935.6
20260506013404 35 15 11.3 17.7 0.00 0.00 0.00 25 935.5
20260506013303 35 30 11.3 17.7 0.00 0.00 0.00 25 935.5
20260506013204 35 16 11.3 17.7 0.00 0.00 0.00 25 935.5
20260506013104 35 15 11.3 17.7 0.00 0.00 0.00 25 935.5
20260506013000 35 27 11.3 17.7 0.00 0.00 0.00 25 935.5
20260506012858 35 29 9.7 17.7 0.00 0.00 0.00 25 935.5
20260506012757 36 19 9.7 17.7 0.00 0.00 0.00 25 935.4
20260506012658 36 22 9.7 17.7 0.00 0.00 0.00 25 935.4
20260506012558 36 24 9.7 17.7 0.00 0.00 0.00 25 935.4
20260506012454 36 25 9.7 16.1 0.00 0.00 0.00 24 935.3
20260506012355 36 31 9.7 16.1 0.00 0.00 0.00 24 935.3
20260506012255 36 30 9.7 16.1 0.00 0.00 0.00 24 935.3
20260506012154 36 43 11.3 16.1 0.00 0.00 0.00 23 935.2
20260506012054 36 29 11.3 16.1 0.00 0.00 0.00 23 935.2
20260506011955 36 28 9.7 16.1 0.00 0.00 0.00 24 935.2
20260506011855 36 14 9.7 16.1 0.00 0.00 0.00 23 935.2
20260506011755 36 34 9.7 16.1 0.00 0.00 0.00 23 935.1
20260506011654 36 21 9.7 16.1 0.00 0.00 0.00 23 935.1
20260506011555 36 57 9.7 16.1 0.00 0.00 0.00 23 935.1
20260506011455 36 49 9.7 14.5 0.00 0.00 0.00 23 935.1
20260506011355 37 28 9.7 16.1 0.00 0.00 0.00 22 935.1
20260506011255 37 25 9.7 16.1 0.00 0.00 0.00 22 935.0
20260506011154 37 35 9.7 16.1 0.00 0.00 0.00 22 935.0
20260506011055 37 11 9.7 17.7 0.00 0.00 0.00 22 935.0
20260506010955 37 26 9.7 17.7 0.00 0.00 0.00 22 935.0
20260506010855 37 26 11.3 17.7 0.00 0.00 0.00 22 935.0
20260506010754 37 52 11.3 17.7 0.00 0.00 0.00 21 935.0
20260506010655 37 56 12.9 19.3 0.00 0.00 0.00 21 934.9
20260506010555 37 48 11.3 19.3 0.00 0.00 0.00 21 934.9
20260506010454 37 46 11.3 19.3 0.00 0.00 0.00 21 934.9
20260506010355 37 53 11.3 19.3 0.00 0.00 0.00 21 934.9
20260506010255 37 40 11.3 19.3 0.00 0.00 0.00 21 934.9
20260506010155 36 52 9.7 19.3 0.00 0.00 0.00 21 934.9
20260506010054 36 32 9.7 19.3 0.00 0.00 0.00 21 934.9
20260506005955 36 46 9.7 19.3 0.00 0.00 0.00 22 934.8
20260506005855 36 39 8.0 19.3 0.00 0.00 0.00 22 934.8
20260506005755 36 46 8.0 19.3 0.00 0.00 0.00 22 934.8
20260506005655 37 45 6.4 14.5 0.00 0.00 0.00 22 934.8
20260506005555 37 20 6.4 14.5 0.00 0.00 0.00 22 934.8
20260506005455 37 20 6.4 14.5 0.00 0.00 0.00 22 934.8
20260506005356 37 17 6.4 11.3 0.00 0.00 0.00 22 934.8
20260506005255 37 348 6.4 14.5 0.00 0.00 0.00 22 934.8
20260506005155 37 339 6.4 14.5 0.00 0.00 0.00 23 934.8
20260506005055 37 3 6.4 14.5 0.00 0.00 0.00 22 934.8
20260506004955 37 321 6.4 16.1 0.00 0.00 0.00 22 934.8
20260506004855 37 349 6.4 16.1 0.00 0.00 0.00 22 934.8
20260506004755 37 346 6.4 16.1 0.00 0.00 0.00 22 934.7
20260506004655 37 293 6.4 16.1 0.00 0.00 0.00 22 934.7
20260506004556 37 333 6.4 16.1 0.00 0.00 0.00 22 934.7
20260506004455 37 339 6.4 16.1 0.00 0.00 0.00 21 934.7
20260506004355 37 353 6.4 16.1 0.00 0.00 0.00 21 934.6
20260506004255 37 345 6.4 16.1 0.00 0.00 0.00 21 934.6
20260506004154 37 53 6.4 16.1 0.00 0.00 0.00 21 934.6
20260506004054 37 35 8.0 16.1 0.00 0.00 0.00 21 934.5
20260506003952 37 48 8.0 16.1 0.00 0.00 0.00 21 934.5
20260506003853 37 53 8.0 16.1 0.00 0.00 0.00 20 934.5
20260506003753 37 48 8.0 16.1 0.00 0.00 0.00 21 934.5
20260506003653 37 74 8.0 16.1 0.00 0.00 0.00 21 934.5
20260506003552 37 28 9.7 16.1 0.00 0.00 0.00 21 934.5
20260506003453 37 96 9.7 17.7 0.00 0.00 0.00 21 934.5
20260506003352 37 61 9.7 19.3 0.00 0.00 0.00 21 934.5
20260506003249 37 41 11.3 19.3 0.00 0.00 0.00 21 934.5
20260506003148 37 54 11.3 19.3 0.00 0.00 0.00 21 934.6
20260506003049 37 55 11.3 19.3 0.00 0.00 0.00 21 934.5
20260506002948 37 20 11.3 19.3 0.00 0.00 0.00 21 934.6
20260506002849 37 43 11.3 19.3 0.00 0.00 0.00 21 934.6
20260506002748 37 40 11.3 19.3 0.00 0.00 0.00 21 934.6
20260506002649 37 50 9.7 19.3 0.00 0.00 0.00 21 934.6
20260506002548 37 7 9.7 19.3 0.00 0.00 0.00 21 934.5
20260506002449 37 36 9.7 19.3 0.00 0.00 0.00 21 934.5
20260506002348 38 16 9.7 19.3 0.00 0.00 0.00 20 934.5
20260506002248 38 31 8.0 19.3 0.00 0.00 0.00 19 934.5
20260506002149 38 41 8.0 19.3 0.00 0.00 0.00 18 934.4
20260506002049 38 41 8.0 19.3 0.00 0.00 0.00 18 934.4
20260506001948 38 44 8.0 19.3 0.00 0.00 0.00 18 934.4
20260506001849 38 265 8.0 12.9 0.00 0.00 0.00 18 934.4
20260506001748 38 274 8.0 12.9 0.00 0.00 0.00 18 934.4
20260506001649 38 1 8.0 12.9 0.00 0.00 0.00 18 934.4
20260506001549 38 4 8.0 12.9 0.00 0.00 0.00 18 934.4
20260506001448 38 331 8.0 12.9 0.00 0.00 0.00 18 934.4
20260506001349 38 351 6.4 12.9 0.00 0.00 0.00 19 934.4
20260506001249 38 356 6.4 12.9 0.00 0.00 0.00 18 934.4
20260506001149 38 348 6.4 12.9 0.00 0.00 0.00 18 934.4
20260506001049 38 312 6.4 12.9 0.00 0.00 0.00 18 934.4
20260506000949 38 14 6.4 11.3 0.00 0.00 0.00 18 934.4
20260506000849 38 20 6.4 11.3 0.00 0.00 0.00 18 934.4
20260506000749 38 354 6.4 11.3 0.00 0.00 0.00 18 934.3
20260506000648 38 345 6.4 11.3 0.00 0.00 0.00 18 934.3
20260506000549 38 350 6.4 11.3 0.00 0.00 0.00 18 934.3
20260506000449 38 346 6.4 11.3 0.00 0.00 0.00 17 934.3
20260506000350 38 351 4.8 11.3 0.00 0.00 0.00 17 934.3
20260506000249 38 359 4.8 9.7 0.00 0.00 0.00 16 934.3
20260506000149 38 7 4.8 9.7 0.00 0.00 0.00 16 934.2
20260506000049 38 345 3.2 9.7 0.00 0.00 0.00 16 934.2
20260505235949 39 353 3.2 9.7 0.00 0.00 0.00 16 934.2
20260505235849 39 0 3.2 9.7 0.00 0.00 0.00 15 934.2
20260505235749 39 320 3.2 8.0 0.00 0.00 0.00 14 934.2
20260505235650 39 226 3.2 6.4 0.00 0.00 0.00 13 934.2
20260505235549 39 226 3.2 8.0 0.00 0.00 0.00 10 934.1
20260505235449 39 229 3.2 9.7 0.00 0.00 0.00 9 934.1
20260505235349 39 230 3.2 12.9 0.00 0.00 0.00 9 934.1
20260505235249 39 226 3.2 12.9 0.00 0.00 0.00 9 934.1
20260505235150 39 225 3.2 12.9 0.00 0.00 0.00 9 934.1
20260505235049 39 225 3.2 12.9 0.00 0.00 0.00 9 934.1
20260505234949 39 226 4.8 12.9 0.00 0.00 0.00 10 934.1
20260505234850 39 226 4.8 12.9 0.00 0.00 0.00 10 934.1
20260505234749 39 226 4.8 12.9 0.00 0.00 0.00 9 934.1
20260505234649 39 223 6.4 12.9 0.00 0.00 0.00 10 934.0
20260505234548 39 187 6.4 12.9 0.00 0.00 0.00 10 934.0
20260505234448 39 62 6.4 12.9 0.00 0.00 0.00 10 934.0
20260505234348 39 82 6.4 12.9 0.00 0.00 0.00 10 934.1
20260505234248 39 86 6.4 11.3 0.00 0.00 0.00 10 934.1
20260505234147 39 81 6.4 16.1 0.00 0.00 0.00 10 934.0
20260505234048 39 103 6.4 16.1 0.00 0.00 0.00 10 934.0
20260505233948 39 94 6.4 16.1 0.00 0.00 0.00 10 934.1
20260505233848 39 104 6.4 16.1 0.00 0.00 0.00 10 934.1
20260505233748 39 94 6.4 16.1 0.00 0.00 0.00 10 934.1
20260505233648 39 86 6.4 16.1 0.00 0.00 0.00 11 934.1
20260505233548 39 129 6.4 16.1 0.00 0.00 0.00 11 934.1
20260505233448 39 136 6.4 16.1 0.00 0.00 0.00 11 934.1
20260505233348 39 110 6.4 16.1 0.00 0.00 0.00 11 934.1
20260505233249 39 130 6.4 16.1 0.00 0.00 0.00 11 934.1
20260505233148 39 119 6.4 16.1 0.00 0.00 0.00 10 934.1
20260505233048 39 114 6.4 16.1 0.00 0.00 0.00 10 934.1
20260505232947 39 119 6.4 16.1 0.00 0.00 0.00 11 934.1
20260505232848 39 54 4.8 16.1 0.00 0.00 0.00 11 934.1
20260505232748 39 166 4.8 16.1 0.00 0.00 0.00 11 934.1
20260505232648 39 179 4.8 16.1 0.00 0.00 0.00 11 934.1
20260505232548 39 173 4.8 16.1 0.00 0.00 0.00 11 934.1
20260505232448 39 158 4.8 16.1 0.00 0.00 0.00 11 934.1
20260505232349 39 195 3.2 16.1 0.00 0.00 0.00 11 934.1
20260505232248 39 199 3.2 16.1 0.00 0.00 0.00 11 934.1
20260505232148 39 200 3.2 8.0 0.00 0.00 0.00 11 934.1
20260505232047 39 210 3.2 8.0 0.00 0.00 0.00 11 934.1
20260505231948 39 220 3.2 8.0 0.00 0.00 0.00 11 934.1
20260505231849 39 216 3.2 8.0 0.00 0.00 0.00 11 934.1
20260505231748 39 220 3.2 8.0 0.00 0.00 0.00 11 934.1
20260505231648 39 215 3.2 8.0 0.00 0.00 0.00 11 934.1
20260505231548 39 44 3.2 8.0 0.00 0.00 0.00 11 934.1
20260505231448 39 219 3.2 8.0 0.00 0.00 0.00 11 934.2
20260505231348 39 210 3.2 8.0 0.00 0.00 0.00 11 934.2
20260505231248 39 205 3.2 8.0 0.00 0.00 0.00 12 934.2
20260505231148 39 199 3.2 8.0 0.00 0.00 0.00 12 934.2
20260505231049 39 205 3.2 8.0 0.00 0.00 0.00 11 934.2
20260505230948 39 212 3.2 8.0 0.00 0.00 0.00 11 934.2
20260505230844 39 227 3.2 8.0 0.00 0.00 0.00 11 934.2
20260505230745 39 241 1.6 9.7 0.00 0.00 0.00 11 934.2
20260505230646 39 223 1.6 12.9 0.00 0.00 0.00 11 934.2
20260505230545 39 140 3.2 12.9 0.00 0.00 0.00 11 934.2
20260505230446 39 48 3.2 12.9 0.00 0.00 0.00 11 934.2
20260505230345 39 217 3.2 16.1 0.00 0.00 0.00 11 934.3
20260505230246 39 211 3.2 16.1 0.00 0.00 0.00 11 934.3
20260505230142 39 41 4.8 16.1 0.00 0.00 0.00 11 934.3
20260505230041 39 196 4.8 16.1 0.00 0.00 0.00 11 934.3
20260505225941 39 231 4.8 16.1 0.00 0.00 0.00 11 934.3
20260505225841 39 222 4.8 16.1 0.00 0.00 0.00 11 934.3
20260505225741 39 47 6.4 16.1 0.00 0.00 0.00 11 934.3
20260505225642 39 211 6.4 16.1 0.00 0.00 0.00 11 934.3
20260505225541 39 163 6.4 16.1 0.00 0.00 0.00 11 934.3
20260505225442 39 160 4.8 16.1 0.00 0.00 0.00 11 934.3
20260505225341 39 178 4.8 16.1 0.00 0.00 0.00 11 934.3
20260505225243 39 154 4.8 11.3 0.00 0.00 0.00 11 934.3
20260505225141 39 143 4.8 11.3 0.00 0.00 0.00 11 934.3
20260505225040 39 218 4.8 16.1 0.00 0.00 0.00 12 934.3
20260505224938 39 219 4.8 16.1 0.00 0.00 0.00 12 934.3
20260505224839 39 202 4.8 16.1 0.00 0.00 0.00 12 934.4
20260505224735 39 216 4.8 16.1 0.00 0.00 0.00 11 934.3
20260505224636 39 235 4.8 16.1 0.00 0.00 0.00 12 934.3
20260505224536 39 202 4.8 16.1 0.00 0.00 0.00 12 934.3
20260505224437 39 228 4.8 16.1 0.00 0.00 0.00 12 934.3
20260505224336 39 228 4.8 16.1 0.00 0.00 0.00 12 934.3
20260505224237 39 214 4.8 16.1 0.00 0.00 0.00 12 934.3
20260505224136 39 226 4.8 16.1 0.00 0.00 0.00 12 934.3
20260505224035 39 225 4.8 16.1 0.00 0.00 0.00 12 934.4
20260505223936 39 225 3.2 9.7 0.00 0.00 0.00 12 934.4
20260505223836 39 196 3.2 9.7 0.00 0.00 0.00 12 934.4
20260505223736 39 209 3.2 9.7 0.00 0.00 0.00 12 934.4
20260505223636 39 187 3.2 8.0 0.00 0.00 0.00 12 934.4
20260505223536 39 214 3.2 8.0 0.00 0.00 0.00 12 934.4
20260505223437 39 226 3.2 6.4 0.00 0.00 0.00 13 934.4
20260505223337 39 228 3.2 6.4 0.00 0.00 0.00 13 934.4
20260505223238 39 18 3.2 6.4 0.00 0.00 0.00 13 934.5
20260505223138 39 228 3.2 4.8 0.00 0.00 0.00 12 934.5
20260505223037 39 21 3.2 4.8 0.00 0.00 0.00 13 934.5
20260505222937 39 33 3.2 4.8 0.00 0.00 0.00 13 934.5
20260505222837 39 32 3.2 6.4 0.00 0.00 0.00 12 934.5
20260505222732 39 28 3.2 6.4 0.00 0.00 0.00 12 934.5
20260505222631 39 228 3.2 14.5 0.00 0.00 0.00 12 934.5
20260505222531 39 40 4.8 20.9 0.00 0.00 0.00 12 934.6
20260505222431 39 39 4.8 20.9 0.00 0.00 0.00 12 934.6
20260505222331 39 50 4.8 20.9 0.00 0.00 0.00 13 934.6
20260505222230 39 41 4.8 20.9 0.00 0.00 0.00 13 934.6
20260505222132 39 19 6.4 24.1 0.00 0.00 0.00 13 934.6
20260505222031 39 32 6.4 32.2 0.00 0.00 0.00 13 934.6
20260505221932 39 43 8.0 32.2 0.00 0.00 0.00 13 934.6
20260505221831 39 42 8.0 32.2 0.00 0.00 0.00 13 934.6
20260505221732 39 226 9.7 32.2 0.00 0.00 0.00 13 934.6
20260505221631 39 237 9.7 32.2 0.00 0.00 0.00 13 934.6
20260505221531 39 224 9.7 32.2 0.00 0.00 0.00 13 934.6
20260505221432 39 223 9.7 32.2 0.00 0.00 0.00 14 934.6
20260505221332 39 189 9.7 32.2 0.00 0.00 0.00 13 934.6
20260505221231 39 246 9.7 32.2 0.00 0.00 0.00 13 934.6
20260505221132 39 191 9.7 32.2 0.00 0.00 0.00 13 934.6
20260505221028 39 204 8.0 32.2 0.00 0.00 0.00 13 934.6
20260505220927 39 229 8.0 32.2 0.00 0.00 0.00 13 934.7
20260505220828 39 221 6.4 32.2 0.00 0.00 0.00 13 934.7
20260505220727 39 219 6.4 32.2 0.00 0.00 0.00 14 934.7
20260505220629 39 217 6.4 32.2 0.00 0.00 0.00 14 934.8
20260505220528 39 224 4.8 12.9 0.00 0.00 0.00 15 934.7
20260505220428 39 225 4.8 12.9 0.00 0.00 0.00 15 934.8
20260505220328 39 214 4.8 12.9 0.00 0.00 0.00 15 934.8
20260505220229 39 217 4.8 12.9 0.00 0.00 0.00 15 934.8
20260505220129 39 38 4.8 12.9 0.00 0.00 0.00 14 934.8
20260505220029 39 224 4.8 16.1 0.00 0.00 0.00 15 934.8
20260505215924 39 219 4.8 16.1 0.00 0.00 0.00 15 934.8
20260505215824 39 228 4.8 16.1 0.00 0.00 0.00 15 934.8
20260505215724 39 222 4.8 16.1 0.00 0.00 0.00 14 934.8
20260505215625 38 219 4.8 16.1 0.00 0.00 0.00 14 934.8
20260505215526 38 222 4.8 16.1 0.00 0.00 0.00 14 934.8
20260505215426 38 221 4.8 16.1 0.00 0.00 0.00 13 934.8
20260505215326 38 220 6.4 16.1 0.00 0.00 0.00 13 934.8
20260505215226 38 228 6.4 16.1 0.00 0.00 0.00 13 934.9
20260505215123 38 223 6.4 17.7 0.00 0.00 0.00 13 934.9
20260505215022 38 221 6.4 17.7 0.00 0.00 0.00 14 934.9
20260505214923 38 216 6.4 17.7 0.00 0.00 0.00 13 934.9
20260505214822 38 218 6.4 17.7 0.00 0.00 0.00 13 935.0
20260505214723 38 214 6.4 29.0 0.00 0.00 0.00 14 935.0
20260505214619 38 218 6.4 29.0 0.00 0.00 0.00 14 935.0
20260505214518 38 206 4.8 29.0 0.00 0.00 0.00 14 935.1
20260505214419 38 223 4.8 29.0 0.00 0.00 0.00 14 935.1
20260505214319 38 204 4.8 29.0 0.00 0.00 0.00 14 935.1
20260505214219 38 222 4.8 29.0 0.00 0.00 0.00 14 935.1
20260505214119 38 222 4.8 29.0 0.00 0.00 0.00 14 935.2
20260505214020 38 227 4.8 29.0 0.00 0.00 0.00 14 935.2
20260505213920 38 199 3.2 29.0 0.00 0.00 0.00 14 935.2
20260505213820 38 225 3.2 29.0 0.00 0.00 0.00 15 935.2
20260505213720 38 218 3.2 9.7 0.00 0.00 0.00 14 935.2
20260505213620 38 203 3.2 9.7 0.00 0.00 0.00 14 935.2
20260505213520 38 28 3.2 6.4 0.00 0.00 0.00 14 935.2
20260505213417 39 204 3.2 6.4 0.00 0.00 0.00 14 935.2
20260505213317 39 217 3.2 4.8 0.00 0.00 0.00 15 935.3
20260505213218 38 226 3.2 4.8 0.00 0.00 0.00 16 935.3
20260505213117 38 242 3.2 6.4 0.00 0.00 0.00 16 935.3
20260505213017 38 224 3.2 6.4 0.00 0.00 0.00 16 935.3
20260505212918 38 206 3.2 9.7 0.00 0.00 0.00 16 935.3
20260505212817 39 237 3.2 9.7 0.00 0.00 0.00 15 935.4
20260505212717 38 218 3.2 9.7 0.00 0.00 0.00 15 935.4
20260505212617 38 226 3.2 9.7 0.00 0.00 0.00 15 935.4
20260505212517 38 42 3.2 9.7 0.00 0.00 0.00 15 935.5
20260505212417 38 226 4.8 9.7 0.00 0.00 0.00 15 935.5
20260505212317 38 226 4.8 9.7 0.00 0.00 0.00 15 935.5
20260505212218 38 226 4.8 9.7 0.00 0.00 0.00 16 935.5
20260505212117 38 226 4.8 9.7 0.00 0.00 0.00 16 935.5
20260505212017 38 200 4.8 9.7 0.00 0.00 0.00 17 935.6
20260505211917 38 205 4.8 9.7 0.00 0.00 0.00 17 935.6
20260505211817 38 204 4.8 9.7 0.00 0.00 0.00 17 935.6
20260505211718 38 216 4.8 9.7 0.00 0.00 0.00 17 935.6
20260505211617 38 214 4.8 9.7 0.00 0.00 0.00 17 935.6
20260505211518 38 228 4.8 8.0 0.00 0.00 0.00 17 935.7
20260505211417 38 233 4.8 8.0 0.00 0.00 0.00 17 935.7
20260505211318 38 226 4.8 8.0 0.00 0.00 0.00 17 935.7
20260505211217 38 226 4.8 8.0 0.00 0.00 0.00 17 935.7
20260505211117 38 234 3.2 8.0 0.00 0.00 0.00 17 935.7
20260505211018 38 222 3.2 8.0 0.00 0.00 0.00 18 935.7
20260505210917 38 230 3.2 8.0 0.00 0.00 0.00 18 935.8
20260505210818 38 193 3.2 8.0 0.00 0.00 0.00 18 935.8
20260505210717 38 226 3.2 6.4 0.00 0.00 0.00 18 935.8
20260505210618 38 226 3.2 6.4 0.00 0.00 0.00 17 935.8
20260505210518 38 224 3.2 6.4 0.00 0.00 0.00 18 935.8
20260505210417 38 226 3.2 6.4 0.00 0.00 0.00 18 935.8
20260505210318 38 34 3.2 6.4 0.00 0.00 0.00 18 935.9
20260505210217 38 225 3.2 6.4 0.00 0.00 0.00 18 935.9
20260505210118 38 222 3.2 6.4 0.00 0.00 0.00 18 935.9
20260505210018 38 238 3.2 6.4 0.00 0.00 0.00 18 935.9
20260505205918 38 226 3.2 6.4 0.00 0.00 0.00 18 935.9
20260505205818 38 226 3.2 8.0 0.00 0.00 0.00 18 935.9
20260505205717 38 226 4.8 8.0 0.00 0.00 0.00 18 935.9
20260505205618 38 225 4.8 8.0 0.00 0.00 0.00 18 936.0
20260505205518 38 225 4.8 8.0 0.00 0.00 0.00 18 936.0
20260505205418 38 217 4.8 8.0 0.00 0.00 0.00 18 936.0
20260505205317 38 226 4.8 8.0 0.00 0.00 0.00 18 936.0
20260505205214 38 245 4.8 8.0 0.00 0.00 0.00 18 936.1
20260505205112 38 228 4.8 8.0 0.00 0.00 0.00 19 936.1
20260505205011 38 229 3.2 8.0 0.00 0.00 0.00 19 936.1
20260505204912 38 226 3.2 8.0 0.00 0.00 0.00 18 936.1
20260505204812 38 227 3.2 8.0 0.00 0.00 0.00 19 936.2
20260505204712 38 226 3.2 8.0 0.00 0.00 0.00 19 936.2
20260505204613 38 227 3.2 8.0 0.00 0.00 0.00 19 936.2
20260505204512 38 229 3.2 8.0 0.00 0.00 0.00 19 936.2
20260505204411 38 226 3.2 8.0 0.00 0.00 0.00 19 936.3
20260505204312 38 226 3.2 8.0 0.00 0.00 0.00 19 936.3
20260505204212 38 226 3.2 8.0 0.00 0.00 0.00 19 936.3
20260505204112 38 236 3.2 8.0 0.00 0.00 0.00 19 936.3
20260505204012 37 226 3.2 9.7 0.00 0.00 0.00 19 936.4
20260505203912 37 228 4.8 9.7 0.00 0.00 0.00 19 936.4
20260505203812 37 235 4.8 9.7 0.00 0.00 0.00 19 936.4
20260505203712 37 220 4.8 9.7 0.00 0.00 0.00 19 936.4
20260505203613 37 209 4.8 11.3 0.00 0.00 0.00 20 936.4
20260505203512 38 222 4.8 11.3 0.00 0.00 0.00 20 936.4
20260505203412 38 279 3.2 11.3 0.00 0.00 0.00 20 936.5
20260505203312 38 340 3.2 11.3 0.00 0.00 0.00 20 936.5
20260505203212 38 225 3.2 11.3 0.00 0.00 0.00 20 936.5
20260505203112 37 35 3.2 11.3 0.00 0.00 0.00 20 936.5